KLM808 RCTP-EHAM

Flight info

Callsign KLM808
Flight time 13h 39m
Altitude 34000
Route CHALI1C CHALI T3 MKG A1 ELATO J101 PONTI DCT BEKOL/K0911S1040 A461 SHL W22 TEPID W24 OSNOV G586 QP B330 ELKAL W179 BIPIP/K0904S1100 W179 IGNAK/K0907S1070 W179 WFX/K0907S1100 W179 OMBON Y1 SADAN/K0878S1160 W186 KAMUD/K0880F380 L141 TISIB L163 SR N193 OGOLI T898 DARVA/N0474F380 B476 OGLID/N0478F400 B476 METKA L88 RASAM N199 EDATA M11 TABAS DCT REBLO UR317 TBN UW71 CRM UL746 ODERO DCT TUVNU DCT FOGRE DCT NORAH DCT PEPIK DCT LIKSA DCT ELMEK DCT NAVEK DCT VEXIL DCT KATCE DCT APEBE DCT NORKU
Aircraft B772/H-SDE2E3FGHIJ5LORVWXY/LB1D1

Departure

Time 2026-05-04 04:04
Airport Taiwan Taoyuan International Airport (RCTP)

Arrival

Time 2026-05-04 17:44
Airport Amsterdam Airport Schiphol (EHAM)
Time Latitude Longitude Altitude Speed Heading
2026-05-04 03:26 25.08081 121.23274 105 ft 0 kts 139°
2026-05-04 03:51 25.08090 121.23265 106 ft 4 kts 139°
2026-05-04 03:51 25.08111 121.23245 105 ft 4 kts 139°
2026-05-04 03:52 25.08131 121.23226 105 ft 4 kts 139°
2026-05-04 03:52 25.08148 121.23209 103 ft 3 kts 140°
2026-05-04 03:52 25.08165 121.23203 103 ft 4 kts 219°
2026-05-04 03:52 25.08182 121.23223 105 ft 4 kts 229°
2026-05-04 03:53 25.08194 121.23238 107 ft 0 kts 229°
2026-05-04 03:57 25.08186 121.23228 104 ft 5 kts 232°
2026-05-04 03:57 25.08176 121.23194 105 ft 5 kts 265°
2026-05-04 03:57 25.08183 121.23159 106 ft 5 kts 288°
2026-05-04 03:58 25.08163 121.23043 107 ft 9 kts 236°
2026-05-04 03:58 25.08121 121.22981 106 ft 15 kts 231°
2026-05-04 03:58 25.08036 121.22871 106 ft 19 kts 230°
2026-05-04 03:59 25.07950 121.22760 108 ft 19 kts 229°
2026-05-04 03:59 25.07861 121.22649 107 ft 19 kts 228°
2026-05-04 03:59 25.07772 121.22539 108 ft 19 kts 228°
2026-05-04 03:59 25.07682 121.22430 106 ft 19 kts 229°
2026-05-04 04:00 25.07594 121.22318 108 ft 19 kts 229°
2026-05-04 04:00 25.07508 121.22208 106 ft 19 kts 230°
2026-05-04 04:00 25.07422 121.22094 107 ft 19 kts 231°
2026-05-04 04:00 25.07337 121.21983 106 ft 19 kts 228°
2026-05-04 04:01 25.07251 121.21876 107 ft 19 kts 229°
2026-05-04 04:01 25.07187 121.21790 107 ft 10 kts 241°
2026-05-04 04:01 25.07200 121.21718 107 ft 10 kts 310°
2026-05-04 04:01 25.07253 121.21665 106 ft 10 kts 321°
2026-05-04 04:02 25.07318 121.21649 107 ft 10 kts 22°
2026-05-04 04:02 25.07362 121.21697 107 ft 0 kts 49°
2026-05-04 04:03 25.07368 121.21705 107 ft 9 kts 49°
2026-05-04 04:04 25.07536 121.21916 106 ft 70 kts 48°
2026-05-04 04:04 25.08000 121.22509 106 ft 132 kts 49°
2026-05-04 04:04 25.08661 121.23432 269 ft 166 kts 52°
2026-05-04 04:04 25.09407 121.24369 1087 ft 161 kts 50°
2026-05-04 04:05 25.10154 121.25292 2040 ft 161 kts 52°
2026-05-04 04:05 25.10917 121.26258 2521 ft 179 kts 52°
2026-05-04 04:05 25.11782 121.27356 2716 ft 200 kts 52°
2026-05-04 04:05 25.12739 121.28571 2901 ft 219 kts 52°
2026-05-04 04:06 25.13993 121.29639 3070 ft 241 kts 25°
2026-05-04 04:06 25.15707 121.29923 3447 ft 261 kts 359°
2026-05-04 04:06 25.17497 121.29308 3913 ft 279 kts 334°
2026-05-04 04:06 25.18974 121.27914 4439 ft 291 kts 313°
2026-05-04 04:07 25.20214 121.26131 5095 ft 289 kts 306°
2026-05-04 04:07 25.21373 121.24327 5855 ft 283 kts 303°
2026-05-04 04:07 25.22497 121.22604 6764 ft 272 kts 302°
2026-05-04 04:07 25.23621 121.20921 7355 ft 273 kts 302°
2026-05-04 04:08 25.24766 121.19237 7903 ft 274 kts 301°
2026-05-04 04:08 25.25910 121.17573 8585 ft 272 kts 300°
2026-05-04 04:08 25.27048 121.15914 9190 ft 270 kts 300°
2026-05-04 04:08 25.27863 121.14083 9439 ft 267 kts 275°
2026-05-04 04:09 25.27786 121.12092 10040 ft 256 kts 254°
2026-05-04 04:09 25.27142 121.10250 10385 ft 264 kts 239°
2026-05-04 04:09 25.25985 121.08602 10480 ft 280 kts 230°
2026-05-04 04:09 25.24633 121.06956 10618 ft 297 kts 230°
2026-05-04 04:10 25.23223 121.05230 10724 ft 315 kts 230°
2026-05-04 04:10 25.21724 121.03362 10894 ft 333 kts 231°
2026-05-04 04:10 25.20156 121.01412 11235 ft 344 kts 229°
2026-05-04 04:10 25.18443 120.99538 11849 ft 349 kts 226°
2026-05-04 04:11 25.16671 120.97691 12571 ft 349 kts 226°
2026-05-04 04:11 25.14910 120.95842 13342 ft 349 kts 226°
2026-05-04 04:11 25.13148 120.93969 13947 ft 353 kts 226°
2026-05-04 04:11 25.11380 120.92071 14442 ft 357 kts 227°
2026-05-04 04:12 25.09595 120.90145 14993 ft 359 kts 227°
2026-05-04 04:12 25.07825 120.88232 15563 ft 363 kts 227°
2026-05-04 04:12 25.06008 120.86268 16213 ft 367 kts 227°
2026-05-04 04:12 25.04176 120.84290 16926 ft 369 kts 227°
2026-05-04 04:13 25.02327 120.82298 17513 ft 372 kts 227°
2026-05-04 04:13 25.00460 120.80287 17961 ft 376 kts 228°
2026-05-04 04:13 24.98575 120.78255 18407 ft 380 kts 228°
2026-05-04 04:13 24.96702 120.76237 18798 ft 382 kts 228°
2026-05-04 04:14 24.94796 120.74186 19200 ft 384 kts 228°
2026-05-04 04:14 24.92876 120.72122 19606 ft 386 kts 228°
2026-05-04 04:14 24.90944 120.70046 19998 ft 388 kts 228°
2026-05-04 04:14 24.89004 120.67961 20368 ft 391 kts 228°
2026-05-04 04:15 24.87050 120.65863 20737 ft 393 kts 228°
2026-05-04 04:15 24.85085 120.63754 21106 ft 395 kts 228°
2026-05-04 04:15 24.83109 120.61634 21476 ft 398 kts 228°
2026-05-04 04:15 24.81118 120.59498 21836 ft 400 kts 228°
2026-05-04 04:16 24.79117 120.57353 22193 ft 402 kts 228°
2026-05-04 04:16 24.77134 120.55227 22532 ft 404 kts 228°
2026-05-04 04:16 24.75105 120.53054 22878 ft 407 kts 227°
2026-05-04 04:16 24.73067 120.50885 23221 ft 409 kts 226°
2026-05-04 04:17 24.70850 120.48886 23503 ft 414 kts 220°
2026-05-04 04:17 24.68462 120.47079 23745 ft 419 kts 218°
2026-05-04 04:17 24.66017 120.45326 24027 ft 420 kts 217°
2026-05-04 04:17 24.63563 120.43563 24324 ft 421 kts 217°
2026-05-04 04:18 24.61121 120.41776 24605 ft 422 kts 218°
2026-05-04 04:18 24.58683 120.39959 24864 ft 424 kts 218°
2026-05-04 04:18 24.56275 120.38146 25142 ft 425 kts 219°
2026-05-04 04:18 24.53833 120.36299 25414 ft 427 kts 219°
2026-05-04 04:19 24.51381 120.34443 25691 ft 428 kts 219°
2026-05-04 04:19 24.48919 120.32581 25945 ft 430 kts 219°
2026-05-04 04:19 24.46446 120.30714 26221 ft 432 kts 219°
2026-05-04 04:19 24.43967 120.28833 26455 ft 433 kts 219°
2026-05-04 04:20 24.41493 120.26923 26671 ft 436 kts 219°
2026-05-04 04:20 24.39010 120.24993 26905 ft 438 kts 220°
2026-05-04 04:20 24.36551 120.23080 27147 ft 439 kts 220°
2026-05-04 04:20 24.34047 120.21134 27414 ft 440 kts 220°
2026-05-04 04:21 24.31539 120.19191 27654 ft 442 kts 220°
2026-05-04 04:21 24.29021 120.17242 27883 ft 444 kts 220°
2026-05-04 04:21 24.26494 120.15288 28115 ft 445 kts 220°
2026-05-04 04:21 24.23953 120.13325 28336 ft 447 kts 220°
2026-05-04 04:22 24.21404 120.11357 28532 ft 448 kts 220°
2026-05-04 04:22 24.18884 120.09412 28721 ft 450 kts 220°
2026-05-04 04:22 24.16315 120.07429 28894 ft 452 kts 220°
2026-05-04 04:22 24.13740 120.05442 29100 ft 453 kts 220°
2026-05-04 04:23 24.11163 120.03448 29286 ft 454 kts 220°
2026-05-04 04:23 24.08571 120.01442 29471 ft 455 kts 220°
2026-05-04 04:23 24.05982 119.99438 29640 ft 456 kts 220°
2026-05-04 04:23 24.03380 119.97426 29808 ft 458 kts 220°
2026-05-04 04:24 24.00774 119.95412 29956 ft 459 kts 220°
2026-05-04 04:24 23.98194 119.93423 30149 ft 458 kts 220°
2026-05-04 04:24 23.95581 119.91410 30265 ft 460 kts 220°
2026-05-04 04:24 23.92958 119.89390 30385 ft 462 kts 220°
2026-05-04 04:25 23.90329 119.87367 30611 ft 460 kts 220°
2026-05-04 04:25 23.87714 119.85356 30887 ft 458 kts 220°
2026-05-04 04:25 23.85112 119.83356 31144 ft 457 kts 220°
2026-05-04 04:25 23.82516 119.81361 31438 ft 454 kts 220°
2026-05-04 04:26 23.79938 119.79380 31758 ft 452 kts 220°
2026-05-04 04:26 23.77368 119.77405 31992 ft 451 kts 220°
2026-05-04 04:26 23.74802 119.75433 32203 ft 451 kts 220°
2026-05-04 04:26 23.72262 119.73483 32442 ft 453 kts 220°
2026-05-04 04:27 23.69680 119.71502 32777 ft 453 kts 220°
2026-05-04 04:27 23.67102 119.69525 33183 ft 451 kts 220°
2026-05-04 04:27 23.64536 119.67558 33488 ft 449 kts 220°
2026-05-04 04:27 23.62089 119.65472 33712 ft 444 kts 226°
2026-05-04 04:28 23.59903 119.63111 33911 ft 441 kts 231°
2026-05-04 04:28 23.57881 119.60586 33978 ft 442 kts 234°
2026-05-04 04:28 23.54443 119.55108 34041 ft 439 kts 240°
2026-05-04 04:29 23.51225 119.49489 34030 ft 434 kts 240°
2026-05-04 04:29 23.48025 119.43925 34039 ft 432 kts 240°
2026-05-04 04:30 23.44822 119.38394 34042 ft 431 kts 240°
2026-05-04 04:30 23.41632 119.32906 34044 ft 432 kts 240°
2026-05-04 04:31 23.38406 119.27363 34042 ft 434 kts 240°
2026-05-04 04:31 23.35167 119.21804 34051 ft 435 kts 240°
2026-05-04 04:32 23.31913 119.16225 34042 ft 436 kts 240°
2026-05-04 04:32 23.28654 119.10644 34033 ft 437 kts 240°
2026-05-04 04:33 23.25403 119.05083 34043 ft 438 kts 240°
2026-05-04 04:33 23.22124 118.99480 34041 ft 439 kts 240°
2026-05-04 04:34 23.19390 118.94812 34044 ft 440 kts 240°
2026-05-04 04:34 23.16101 118.89204 34046 ft 440 kts 240°
2026-05-04 04:35 23.12812 118.83600 34043 ft 439 kts 240°
2026-05-04 04:35 23.09526 118.78009 34020 ft 439 kts 240°
2026-05-04 04:36 23.06257 118.72450 34040 ft 438 kts 240°
2026-05-04 04:36 23.02968 118.66865 34043 ft 439 kts 240°
2026-05-04 04:37 22.96377 118.55688 34043 ft 439 kts 240°
2026-05-04 04:38 22.93073 118.50110 34046 ft 439 kts 240°
2026-05-04 04:38 22.89778 118.44574 34047 ft 439 kts 240°
2026-05-04 04:39 22.86466 118.39011 34040 ft 439 kts 240°
2026-05-04 04:39 22.83145 118.33438 34056 ft 440 kts 240°
2026-05-04 04:40 22.79811 118.27844 34046 ft 441 kts 240°
2026-05-04 04:40 22.76493 118.22285 34047 ft 442 kts 240°
2026-05-04 04:41 22.73143 118.16678 34049 ft 442 kts 240°
2026-05-04 04:41 22.69794 118.11080 34047 ft 442 kts 240°
2026-05-04 04:42 22.66446 118.05487 34065 ft 442 kts 240°
2026-05-04 04:42 22.63112 117.99924 34048 ft 442 kts 240°
2026-05-04 04:43 22.59768 117.94349 34043 ft 441 kts 240°
2026-05-04 04:43 22.56447 117.88773 34044 ft 439 kts 241°
2026-05-04 04:44 22.53162 117.83249 34038 ft 439 kts 241°
2026-05-04 04:44 22.49857 117.77701 34042 ft 438 kts 240°
2026-05-04 04:45 22.46553 117.72162 34047 ft 437 kts 240°
2026-05-04 04:47 22.35180 117.52588 34029 ft 438 kts 253°
2026-05-04 04:47 22.34287 117.46111 34058 ft 438 kts 271°
2026-05-04 04:48 22.35374 117.39633 34052 ft 440 kts 282°
2026-05-04 04:49 22.38923 117.23514 34046 ft 443 kts 281°
2026-05-04 04:49 22.40299 117.17009 34046 ft 443 kts 281°
2026-05-04 04:50 22.41667 117.10510 34047 ft 442 kts 281°
2026-05-04 04:50 22.43019 117.04077 34049 ft 442 kts 281°
2026-05-04 04:51 22.44380 116.97591 34056 ft 444 kts 281°
2026-05-04 04:51 22.45755 116.91027 34056 ft 450 kts 281°
2026-05-04 04:52 22.47143 116.84386 34052 ft 454 kts 281°
2026-05-04 04:52 22.48540 116.77688 34050 ft 457 kts 281°
2026-05-04 04:53 22.49899 116.71000 34051 ft 458 kts 277°
2026-05-04 04:53 22.50479 116.64164 34053 ft 456 kts 270°
2026-05-04 04:54 22.50195 116.57326 34052 ft 454 kts 266°
2026-05-04 04:54 22.49792 116.50522 34055 ft 452 kts 265°
2026-05-04 04:55 22.49406 116.43747 34054 ft 450 kts 265°
2026-05-04 04:55 22.49032 116.37048 34058 ft 448 kts 265°
2026-05-04 04:56 22.48656 116.30327 34062 ft 447 kts 265°
2026-05-04 04:56 22.48278 116.23627 34070 ft 446 kts 265°
2026-05-04 04:57 22.47898 116.16947 34055 ft 445 kts 265°
2026-05-04 04:57 22.47515 116.10276 34062 ft 444 kts 265°
2026-05-04 04:58 22.47133 116.03653 34062 ft 444 kts 265°
2026-05-04 04:58 22.46746 115.96985 34041 ft 444 kts 265°
2026-05-04 04:59 22.46349 115.90291 34064 ft 449 kts 265°
2026-05-04 04:59 22.45939 115.83493 34053 ft 454 kts 265°
2026-05-04 05:00 22.45526 115.76668 34062 ft 456 kts 265°
2026-05-04 05:01 22.44902 115.66425 34056 ft 457 kts 265°
2026-05-04 05:01 22.44481 115.59575 34061 ft 456 kts 265°
2026-05-04 05:02 22.44059 115.52749 34049 ft 453 kts 265°
2026-05-04 05:02 22.43635 115.45951 34054 ft 451 kts 265°
2026-05-04 05:03 22.43214 115.39238 34054 ft 449 kts 265°
2026-05-04 05:04 22.42361 115.25785 34056 ft 446 kts 265°
2026-05-04 05:04 22.41935 115.19130 34051 ft 445 kts 265°
2026-05-04 05:06 22.40203 114.92496 34050 ft 443 kts 264°
2026-05-04 05:07 22.39766 114.85880 34058 ft 443 kts 264°
2026-05-04 05:07 22.39324 114.79228 34054 ft 444 kts 264°
2026-05-04 05:09 22.37628 114.49240 34042 ft 447 kts 276°
2026-05-04 05:10 22.39126 114.42741 34055 ft 452 kts 287°
2026-05-04 05:10 22.42028 114.36649 34073 ft 458 kts 296°
2026-05-04 05:11 22.45245 114.30666 34078 ft 461 kts 295°
2026-05-04 05:11 22.48412 114.24630 34066 ft 462 kts 294°
2026-05-04 05:12 22.51564 114.18592 34054 ft 460 kts 296°
2026-05-04 05:12 22.55843 114.13324 34074 ft 475 kts 313°
2026-05-04 05:13 22.61408 114.09451 34072 ft 491 kts 328°
2026-05-04 05:13 22.67633 114.06388 34078 ft 492 kts 328°
2026-05-04 05:14 22.73827 114.03301 34070 ft 492 kts 328°
2026-05-04 05:14 22.80028 114.00126 34094 ft 492 kts 327°
2026-05-04 05:15 22.86230 113.96933 34066 ft 493 kts 327°
2026-05-04 05:15 22.92399 113.93756 34060 ft 492 kts 327°
2026-05-04 05:16 22.98572 113.90539 34056 ft 491 kts 327°
2026-05-04 05:16 23.04697 113.87342 34060 ft 489 kts 325°
2026-05-04 05:17 23.10366 113.83476 34067 ft 476 kts 315°
2026-05-04 05:17 23.15274 113.78760 34069 ft 467 kts 308°
2026-05-04 05:18 23.19930 113.73822 34077 ft 467 kts 308°
2026-05-04 05:18 23.24561 113.68934 34071 ft 467 kts 309°
2026-05-04 05:19 23.29244 113.64018 34069 ft 466 kts 309°
2026-05-04 05:19 23.33918 113.59115 34073 ft 466 kts 309°
2026-05-04 05:20 23.37800 113.55036 34073 ft 466 kts 308°
2026-05-04 05:20 23.43231 113.49324 34070 ft 466 kts 309°
2026-05-04 05:21 23.47109 113.45239 34071 ft 466 kts 309°
2026-05-04 05:21 23.51779 113.40318 34085 ft 466 kts 309°
2026-05-04 05:22 23.56421 113.35384 34075 ft 465 kts 308°
2026-05-04 05:22 23.61016 113.30428 34078 ft 465 kts 308°
2026-05-04 05:23 23.65334 113.25252 34074 ft 456 kts 300°
2026-05-04 05:23 23.68716 113.19511 34074 ft 450 kts 293°
2026-05-04 05:24 23.71318 113.13346 34085 ft 445 kts 289°
2026-05-04 05:24 23.73832 113.07152 34076 ft 446 kts 289°
2026-05-04 05:25 23.76680 113.01192 34074 ft 454 kts 303°
2026-05-04 05:25 23.78961 112.98746 34082 ft 466 kts 314°
2026-05-04 05:25 23.81670 112.96727 34090 ft 478 kts 324°
2026-05-04 05:26 23.84815 112.95352 34112 ft 495 kts 336°
2026-05-04 05:26 23.88179 112.94414 34078 ft 501 kts 337°
2026-05-04 05:26 23.94918 112.92306 34096 ft 504 kts 335°
2026-05-04 05:28 24.21924 112.83307 34104 ft 507 kts 334°
2026-05-04 05:29 24.28669 112.81067 34081 ft 505 kts 334°
2026-05-04 05:29 24.35390 112.78836 34094 ft 502 kts 334°
2026-05-04 05:31 24.50270 112.63017 34117 ft 427 kts 272°
2026-05-04 05:31 24.50550 112.59762 34104 ft 429 kts 272°
2026-05-04 05:32 24.51106 112.53214 34094 ft 432 kts 272°
2026-05-04 05:33 24.52016 112.43329 34114 ft 434 kts 272°
2026-05-04 05:33 24.52649 112.36730 34108 ft 434 kts 272°
2026-05-04 05:34 24.53277 112.30182 34067 ft 433 kts 272°
2026-05-04 05:34 24.53906 112.23603 34094 ft 433 kts 272°
2026-05-04 05:35 24.54533 112.17020 34106 ft 432 kts 272°
2026-05-04 05:35 24.55153 112.10457 34104 ft 432 kts 272°
2026-05-04 05:36 24.55764 112.03897 34111 ft 431 kts 272°
2026-05-04 05:36 24.56377 111.97328 34106 ft 433 kts 272°
2026-05-04 05:37 24.56992 111.90737 34098 ft 433 kts 272°
2026-05-04 05:37 24.57604 111.84144 34099 ft 434 kts 272°
2026-05-04 05:38 24.58511 111.74294 34085 ft 433 kts 272°
2026-05-04 05:38 24.59115 111.67707 34100 ft 432 kts 272°
2026-05-04 05:39 24.60015 111.57818 34103 ft 434 kts 272°
2026-05-04 05:40 24.60906 111.47915 34087 ft 436 kts 272°
2026-05-04 05:40 24.61505 111.41277 34089 ft 434 kts 272°
2026-05-04 05:41 24.62091 111.34712 34090 ft 433 kts 272°
2026-05-04 05:41 24.62676 111.28117 34089 ft 432 kts 272°
2026-05-04 05:42 24.63251 111.21525 34086 ft 432 kts 272°
2026-05-04 05:42 24.63821 111.14954 34083 ft 432 kts 272°
2026-05-04 05:43 24.64383 111.08438 34091 ft 431 kts 272°
2026-05-04 05:45 24.66751 110.82236 34078 ft 432 kts 280°
2026-05-04 05:47 24.82727 110.61130 34093 ft 464 kts 308°
2026-05-04 05:47 24.87397 110.56213 34073 ft 464 kts 308°
2026-05-04 05:48 24.92047 110.51291 34075 ft 463 kts 308°
2026-05-04 05:48 24.96653 110.46412 34080 ft 462 kts 308°
2026-05-04 05:49 25.01286 110.41508 34080 ft 462 kts 308°
2026-05-04 05:49 25.05929 110.36606 34086 ft 462 kts 308°
2026-05-04 05:51 25.24449 110.17056 34105 ft 458 kts 308°
2026-05-04 05:52 25.29081 110.12220 34098 ft 457 kts 308°
2026-05-04 05:52 25.33702 110.07387 34086 ft 456 kts 308°
2026-05-04 05:54 25.52111 109.88038 34077 ft 458 kts 308°
2026-05-04 05:55 25.56741 109.83160 34095 ft 460 kts 308°
2026-05-04 05:55 25.61393 109.78251 34080 ft 463 kts 308°
2026-05-04 05:56 25.66044 109.73339 34086 ft 464 kts 308°
2026-05-04 05:56 25.70727 109.68385 34086 ft 466 kts 308°
2026-05-04 05:57 25.75231 109.63303 34077 ft 457 kts 300°
2026-05-04 05:57 25.78447 109.57335 34300 ft 445 kts 289°
2026-05-04 05:58 25.79593 109.54178 34512 ft 437 kts 282°
2026-05-04 05:58 25.80435 109.50948 34688 ft 435 kts 281°
2026-05-04 05:58 25.81260 109.47709 34792 ft 436 kts 281°
2026-05-04 05:58 25.82092 109.44457 34939 ft 436 kts 282°
2026-05-04 05:59 25.82917 109.41261 35109 ft 436 kts 282°
2026-05-04 05:59 25.83761 109.38021 35218 ft 436 kts 282°
2026-05-04 05:59 25.84608 109.34782 35345 ft 436 kts 283°
2026-05-04 05:59 25.85452 109.31569 35629 ft 432 kts 283°
2026-05-04 06:00 25.86295 109.28365 35872 ft 430 kts 283°
2026-05-04 06:00 25.87130 109.25182 35990 ft 430 kts 283°
2026-05-04 06:00 25.88803 109.18782 36094 ft 431 kts 283°
2026-05-04 06:01 25.90477 109.12366 36113 ft 433 kts 283°
2026-05-04 06:03 25.97237 108.86657 36110 ft 432 kts 284°
2026-05-04 06:05 26.04849 108.57937 36144 ft 429 kts 284°
2026-05-04 06:06 26.06545 108.51575 36136 ft 428 kts 284°
2026-05-04 06:06 26.07948 108.46299 36137 ft 428 kts 284°
2026-05-04 06:07 26.10059 108.38953 36138 ft 430 kts 289°
2026-05-04 06:07 26.12192 108.33885 36153 ft 432 kts 292°
2026-05-04 06:08 26.14806 108.27902 36142 ft 431 kts 292°
2026-05-04 06:08 26.17408 108.21882 36136 ft 432 kts 292°
2026-05-04 06:09 26.20006 108.15859 36162 ft 431 kts 292°
2026-05-04 06:11 26.30435 107.91589 36147 ft 434 kts 292°
2026-05-04 06:13 26.40792 107.67347 36162 ft 431 kts 292°
2026-05-04 06:14 26.49780 107.46245 36168 ft 430 kts 292°
2026-05-04 06:15 26.52368 107.40220 36181 ft 429 kts 292°
2026-05-04 06:15 26.54954 107.34175 36175 ft 431 kts 292°
2026-05-04 06:16 26.57494 107.28145 36187 ft 432 kts 292°
2026-05-04 06:16 26.60049 107.22049 36175 ft 433 kts 292°
2026-05-04 06:17 26.62606 107.15963 36175 ft 432 kts 292°
2026-05-04 06:17 26.65171 107.09884 36186 ft 432 kts 292°
2026-05-04 06:18 26.67759 107.03817 36191 ft 433 kts 292°
2026-05-04 06:20 26.78514 106.79701 36187 ft 437 kts 302°
2026-05-04 06:21 26.89292 106.67545 36174 ft 444 kts 313°
2026-05-04 06:22 26.93978 106.63015 36172 ft 443 kts 313°
2026-05-04 06:25 27.26262 106.31307 36150 ft 438 kts 313°
2026-05-04 06:26 27.30882 106.26823 36123 ft 439 kts 313°
2026-05-04 06:26 27.35497 106.22334 36144 ft 438 kts 313°
2026-05-04 06:27 27.46998 106.11107 36142 ft 439 kts 313°
2026-05-04 06:28 27.51623 106.06581 36117 ft 440 kts 313°
2026-05-04 06:28 27.56256 106.02043 36124 ft 441 kts 313°
2026-05-04 06:29 27.60899 105.97490 36112 ft 443 kts 314°
2026-05-04 06:29 27.65522 105.92952 36101 ft 443 kts 314°
2026-05-04 06:30 27.70061 105.88303 36125 ft 434 kts 307°
2026-05-04 06:30 27.73436 105.82746 36058 ft 427 kts 296°
2026-05-04 06:31 27.75704 105.76586 36095 ft 425 kts 286°
2026-05-04 06:31 27.77429 105.70207 36082 ft 427 kts 287°
2026-05-04 06:33 27.86161 105.45227 36050 ft 428 kts 292°
2026-05-04 06:34 27.88547 105.39057 36048 ft 427 kts 293°
2026-05-04 06:34 27.91193 105.33041 36050 ft 427 kts 295°
2026-05-04 06:36 28.05582 105.11860 36012 ft 442 kts 322°
2026-05-04 06:37 28.10868 105.08263 36010 ft 442 kts 323°
2026-05-04 06:37 28.16133 105.04651 36024 ft 441 kts 322°
2026-05-04 06:38 28.21365 105.01001 36010 ft 442 kts 322°
2026-05-04 06:40 28.42337 104.86294 36001 ft 444 kts 322°
2026-05-04 06:40 28.47612 104.82605 36016 ft 444 kts 322°
2026-05-04 06:41 28.52829 104.78952 36010 ft 442 kts 322°
2026-05-04 06:41 28.58065 104.75277 36007 ft 441 kts 322°
2026-05-04 06:42 28.63277 104.71615 36011 ft 439 kts 322°
2026-05-04 06:44 28.84010 104.57002 36020 ft 438 kts 322°
2026-05-04 06:44 28.89183 104.53338 36020 ft 438 kts 322°
2026-05-04 06:45 28.94359 104.49657 36021 ft 438 kts 322°
2026-05-04 06:45 28.99497 104.45997 36017 ft 438 kts 322°
2026-05-04 06:46 29.04706 104.42285 36058 ft 439 kts 322°
2026-05-04 06:46 29.09860 104.38607 36034 ft 440 kts 322°
2026-05-04 06:48 29.28837 104.27269 36032 ft 461 kts 344°
2026-05-04 06:48 29.32066 104.26977 36023 ft 471 kts 352°
2026-05-04 06:50 29.58594 104.31533 36039 ft 484 kts 359°
2026-05-04 06:51 29.65273 104.32665 36048 ft 485 kts 359°
2026-05-04 06:51 29.70830 104.33612 36048 ft 485 kts 359°
2026-05-04 06:52 29.78593 104.34939 36040 ft 484 kts 359°
2026-05-04 06:52 29.84133 104.35888 36047 ft 483 kts 359°
2026-05-04 06:53 29.90784 104.37027 36091 ft 482 kts 359°
2026-05-04 06:53 29.97428 104.38167 36058 ft 481 kts 359°
2026-05-04 06:54 30.04043 104.39303 36055 ft 480 kts 359°
2026-05-04 06:54 30.10601 104.40432 36056 ft 479 kts 359°
2026-05-04 06:55 30.17200 104.41571 36099 ft 479 kts 359°
2026-05-04 06:55 30.23790 104.42721 36056 ft 479 kts 360°
2026-05-04 06:57 30.50120 104.47338 36054 ft 479 kts 360°
2026-05-04 06:58 30.56718 104.48407 36051 ft 473 kts 354°
2026-05-04 06:58 30.63157 104.47950 36062 ft 458 kts 342°
2026-05-04 06:59 30.69170 104.46042 36059 ft 448 kts 334°
2026-05-04 06:59 30.75076 104.43683 36059 ft 450 kts 335°
2026-05-04 07:01 30.96790 104.38670 36045 ft 467 kts 351°
2026-05-04 07:01 31.00057 104.38613 36079 ft 468 kts 351°
2026-05-04 07:02 31.06577 104.38483 36043 ft 468 kts 351°
2026-05-04 07:02 31.13058 104.38319 36036 ft 468 kts 351°
2026-05-04 07:03 31.19572 104.38144 36033 ft 468 kts 351°
2026-05-04 07:03 31.26098 104.37964 36064 ft 467 kts 351°
2026-05-04 07:04 31.32590 104.37616 36037 ft 466 kts 350°
2026-05-04 07:04 31.39047 104.37206 36029 ft 466 kts 350°
2026-05-04 07:05 31.45529 104.36814 36027 ft 466 kts 350°
2026-05-04 07:05 31.51981 104.36440 36029 ft 466 kts 350°
2026-05-04 07:06 31.61709 104.35877 36054 ft 466 kts 351°
2026-05-04 07:07 31.68191 104.35502 36044 ft 465 kts 351°
2026-05-04 07:09 31.93886 104.34125 36066 ft 461 kts 351°
2026-05-04 07:09 32.00335 104.33794 36044 ft 464 kts 351°
2026-05-04 07:10 32.06804 104.33464 36029 ft 464 kts 351°
2026-05-04 07:12 32.32844 104.32123 36025 ft 464 kts 351°
2026-05-04 07:12 32.39284 104.31790 36031 ft 461 kts 352°
2026-05-04 07:13 32.45698 104.31463 36021 ft 460 kts 352°
2026-05-04 07:13 32.52057 104.31144 36019 ft 460 kts 352°
2026-05-04 07:14 32.68108 104.30354 36013 ft 466 kts 352°
2026-05-04 07:15 32.74607 104.30045 36023 ft 468 kts 352°
2026-05-04 07:15 32.81137 104.29729 36004 ft 471 kts 352°
2026-05-04 07:16 32.87709 104.29416 35998 ft 473 kts 353°
2026-05-04 07:16 32.94301 104.29103 35969 ft 474 kts 353°
2026-05-04 07:17 33.00836 104.28789 35974 ft 472 kts 353°
2026-05-04 07:17 33.07389 104.28471 35951 ft 470 kts 353°
2026-05-04 07:18 33.13924 104.28154 35968 ft 469 kts 353°
2026-05-04 07:18 33.20442 104.27842 35938 ft 468 kts 353°
2026-05-04 07:19 33.26933 104.27526 35940 ft 466 kts 353°
2026-05-04 07:19 33.33142 104.26138 35930 ft 449 kts 329°
2026-05-04 07:20 33.37984 104.21594 35920 ft 447 kts 310°
2026-05-04 07:20 33.39752 104.18559 35944 ft 445 kts 299°
2026-05-04 07:20 33.41207 104.15277 35963 ft 447 kts 298°
2026-05-04 07:22 33.52935 103.88563 35943 ft 450 kts 298°
2026-05-04 07:23 33.55876 103.81958 35916 ft 449 kts 298°
2026-05-04 07:23 33.58803 103.75359 35931 ft 447 kts 298°
2026-05-04 07:24 33.61715 103.68781 35949 ft 445 kts 298°
2026-05-04 07:24 33.64615 103.62223 35961 ft 448 kts 298°
2026-05-04 07:26 33.76217 103.35843 35945 ft 444 kts 298°
2026-05-04 07:27 33.79089 103.29278 35951 ft 443 kts 298°
2026-05-04 07:27 33.81962 103.22704 35943 ft 444 kts 298°
2026-05-04 07:28 33.84820 103.16154 35943 ft 445 kts 298°
2026-05-04 07:28 33.87697 103.09543 35943 ft 445 kts 298°
2026-05-04 07:29 33.90563 103.02954 35954 ft 443 kts 298°
2026-05-04 07:29 33.93414 102.96371 35954 ft 443 kts 298°
2026-05-04 07:30 33.96245 102.89830 35949 ft 443 kts 298°
2026-05-04 07:30 33.99099 102.83228 35949 ft 443 kts 298°
2026-05-04 07:31 34.01949 102.76619 35937 ft 444 kts 298°
2026-05-04 07:33 34.13318 102.50122 35959 ft 446 kts 298°
2026-05-04 07:33 34.16162 102.43460 35960 ft 446 kts 298°
2026-05-04 07:34 34.18982 102.36846 35950 ft 445 kts 298°
2026-05-04 07:34 34.21875 102.30240 35971 ft 444 kts 299°
2026-05-04 07:35 34.24799 102.23681 35973 ft 443 kts 300°
2026-05-04 07:35 34.27713 102.17126 35965 ft 442 kts 299°
2026-05-04 07:36 34.30611 102.10570 35976 ft 442 kts 299°
2026-05-04 07:38 34.42140 101.84307 35984 ft 443 kts 299°
2026-05-04 07:38 34.44537 101.78823 35975 ft 443 kts 299°
2026-05-04 07:39 34.47889 101.71141 35961 ft 444 kts 299°
2026-05-04 07:39 34.50289 101.65627 35940 ft 445 kts 299°
2026-05-04 07:40 34.53182 101.58971 35949 ft 445 kts 299°
2026-05-04 07:40 34.56071 101.52312 35952 ft 445 kts 299°
2026-05-04 07:41 34.58938 101.45688 35935 ft 445 kts 299°
2026-05-04 07:41 34.61813 101.39034 35945 ft 445 kts 299°
2026-05-04 07:42 34.64685 101.32376 35942 ft 444 kts 299°
2026-05-04 07:42 34.67539 101.25741 35935 ft 442 kts 299°
2026-05-04 07:43 34.70385 101.19115 35925 ft 441 kts 300°
2026-05-04 07:43 34.73220 101.12503 35934 ft 441 kts 299°
2026-05-04 07:44 34.76047 101.05900 35943 ft 442 kts 299°
2026-05-04 07:44 34.78885 100.99257 35926 ft 444 kts 299°
2026-05-04 07:45 34.81724 100.92591 35924 ft 444 kts 299°
2026-05-04 07:45 34.84562 100.85921 35941 ft 443 kts 299°
2026-05-04 07:46 34.87398 100.79244 35911 ft 444 kts 299°
2026-05-04 07:46 34.90229 100.72561 35915 ft 443 kts 299°
2026-05-04 07:47 34.93034 100.65920 35929 ft 443 kts 299°
2026-05-04 07:49 35.04321 100.39101 35874 ft 443 kts 299°
2026-05-04 07:49 35.07125 100.32406 35867 ft 442 kts 299°
2026-05-04 07:50 35.09918 100.25722 35859 ft 442 kts 299°
2026-05-04 07:50 35.12707 100.19028 35838 ft 441 kts 299°
2026-05-04 07:51 35.15489 100.12343 35848 ft 441 kts 299°
2026-05-04 07:51 35.18269 100.05651 35845 ft 441 kts 299°
2026-05-04 07:52 35.21026 99.99005 35852 ft 440 kts 299°
2026-05-04 07:52 35.23799 99.92304 35867 ft 441 kts 299°
2026-05-04 07:54 35.34841 99.65468 35899 ft 440 kts 299°
2026-05-04 07:55 35.37574 99.58788 35936 ft 437 kts 299°
2026-05-04 07:55 35.40299 99.52123 35944 ft 438 kts 298°
2026-05-04 07:56 35.43021 99.45458 35909 ft 441 kts 299°
2026-05-04 07:56 35.45758 99.38736 35944 ft 441 kts 299°
2026-05-04 07:57 35.48502 99.31979 35945 ft 443 kts 298°
2026-05-04 07:57 35.51244 99.25211 35950 ft 443 kts 298°
2026-05-04 07:58 35.53986 99.18432 35956 ft 442 kts 298°
2026-05-04 07:58 35.56702 99.11706 35943 ft 441 kts 298°
2026-05-04 07:59 35.59424 99.04949 35945 ft 440 kts 298°
2026-05-04 07:59 35.62137 98.98199 35958 ft 440 kts 298°
2026-05-04 08:00 35.64842 98.91456 35950 ft 439 kts 298°
2026-05-04 08:02 35.75598 98.64511 35939 ft 437 kts 298°
2026-05-04 08:02 35.78251 98.57825 35927 ft 437 kts 298°
2026-05-04 08:03 35.80917 98.51097 35915 ft 437 kts 298°
2026-05-04 08:03 35.83576 98.44372 35912 ft 436 kts 298°
2026-05-04 08:04 35.86217 98.37673 35910 ft 433 kts 298°
2026-05-04 08:04 35.88840 98.31026 35873 ft 432 kts 298°
2026-05-04 08:05 35.91475 98.24325 35873 ft 435 kts 298°
2026-05-04 08:05 35.94120 98.17576 35863 ft 437 kts 298°
2026-05-04 08:06 35.96760 98.10828 35852 ft 434 kts 298°
2026-05-04 08:06 35.99377 98.04110 35827 ft 434 kts 298°
2026-05-04 08:08 36.09863 97.77129 35797 ft 435 kts 297°
2026-05-04 08:11 36.21814 97.46915 35786 ft 434 kts 298°
2026-05-04 08:11 36.25846 97.36924 35758 ft 434 kts 298°
2026-05-04 08:12 36.28536 97.30222 35764 ft 434 kts 298°
2026-05-04 08:12 36.31225 97.23508 35751 ft 435 kts 298°
2026-05-04 08:13 36.33916 97.16777 35731 ft 435 kts 298°
2026-05-04 08:13 36.36579 97.10099 35744 ft 435 kts 298°
2026-05-04 08:14 36.39261 97.03364 35745 ft 435 kts 298°
2026-05-04 08:16 36.49934 96.76410 35717 ft 435 kts 297°
2026-05-04 08:16 36.52600 96.69640 35718 ft 435 kts 297°
2026-05-04 08:17 36.55247 96.62907 35720 ft 436 kts 297°
2026-05-04 08:17 36.57915 96.56131 35721 ft 436 kts 298°
2026-05-04 08:19 36.68710 96.29035 35710 ft 437 kts 297°
2026-05-04 08:20 36.71385 96.22273 35704 ft 437 kts 297°
2026-05-04 08:20 36.74073 96.15465 35704 ft 438 kts 297°
2026-05-04 08:21 36.76761 96.08646 35690 ft 438 kts 297°
2026-05-04 08:21 36.79459 96.01824 35709 ft 438 kts 297°
2026-05-04 08:22 36.82186 95.95002 35709 ft 438 kts 297°
2026-05-04 08:24 36.93028 95.67699 35697 ft 439 kts 296°
2026-05-04 08:24 36.95278 95.62000 35703 ft 439 kts 296°
2026-05-04 08:25 36.97981 95.55140 35706 ft 440 kts 296°
2026-05-04 08:25 37.00690 95.48266 35698 ft 440 kts 297°
2026-05-04 08:27 37.11794 95.20965 35704 ft 441 kts 297°
2026-05-04 08:28 37.14561 95.14110 35715 ft 441 kts 297°
2026-05-04 08:28 37.17329 95.07239 35708 ft 442 kts 296°
2026-05-04 08:29 37.20092 95.00365 35705 ft 442 kts 296°
2026-05-04 08:31 37.31130 94.72759 35701 ft 443 kts 296°
2026-05-04 08:33 37.42099 94.45083 35693 ft 443 kts 296°
2026-05-04 08:35 37.53037 94.17238 35678 ft 444 kts 295°
2026-05-04 08:35 37.55766 94.10252 35686 ft 444 kts 295°
2026-05-04 08:37 37.65284 93.85765 35682 ft 445 kts 295°
2026-05-04 08:38 37.67998 93.78746 35674 ft 445 kts 295°
2026-05-04 08:38 37.70713 93.71710 35678 ft 445 kts 295°
2026-05-04 08:40 37.81494 93.43609 35682 ft 445 kts 295°
2026-05-04 08:41 37.84185 93.36555 35678 ft 445 kts 295°
2026-05-04 08:41 37.86871 93.29497 35684 ft 444 kts 295°
2026-05-04 08:42 37.89533 93.22487 35678 ft 444 kts 295°
2026-05-04 08:42 37.92206 93.15431 35694 ft 444 kts 294°
2026-05-04 08:43 37.94877 93.08364 35678 ft 444 kts 294°
2026-05-04 08:43 37.97537 93.01310 35673 ft 443 kts 294°
2026-05-04 08:44 38.00178 92.94292 35682 ft 443 kts 294°
2026-05-04 08:46 38.10774 92.65962 35671 ft 444 kts 294°
2026-05-04 08:46 38.13420 92.58848 35683 ft 446 kts 294°
2026-05-04 08:47 38.16051 92.51757 35682 ft 447 kts 294°
2026-05-04 08:47 38.18396 92.44432 35692 ft 447 kts 289°
2026-05-04 08:48 38.20569 92.37008 35687 ft 448 kts 289°
2026-05-04 08:48 38.22735 92.29605 35688 ft 448 kts 289°
2026-05-04 08:49 38.24918 92.22164 35678 ft 448 kts 289°
2026-05-04 08:50 38.32523 91.96146 35696 ft 448 kts 289°
2026-05-04 08:51 38.34688 91.88696 35691 ft 449 kts 289°
2026-05-04 08:51 38.36849 91.81233 35703 ft 449 kts 288°
2026-05-04 08:52 38.39011 91.73749 35705 ft 450 kts 288°
2026-05-04 08:52 38.41168 91.66259 35699 ft 450 kts 288°
2026-05-04 08:54 38.49754 91.36242 35724 ft 451 kts 288°
2026-05-04 08:55 38.51889 91.28720 35722 ft 451 kts 288°
2026-05-04 08:55 38.54023 91.21185 35731 ft 451 kts 288°
2026-05-04 09:01 38.77386 90.42047 35786 ft 454 kts 289°
2026-05-04 09:01 38.79770 90.34613 35786 ft 454 kts 289°
2026-05-04 09:02 38.82162 90.27110 35779 ft 454 kts 289°
2026-05-04 09:02 38.84543 90.19604 35780 ft 454 kts 289°
2026-05-04 09:03 38.86920 90.12087 35802 ft 454 kts 289°
2026-05-04 09:03 38.89291 90.04575 35801 ft 454 kts 289°
2026-05-04 09:04 38.91657 89.97054 35787 ft 454 kts 288°
2026-05-04 09:04 38.94011 89.89556 35801 ft 456 kts 288°
2026-05-04 09:05 38.96387 89.81966 35811 ft 458 kts 288°
2026-05-04 09:05 38.98762 89.74364 35800 ft 458 kts 288°
2026-05-04 09:06 39.01116 89.66804 35804 ft 459 kts 288°
2026-05-04 09:08 39.10612 89.36089 35767 ft 462 kts 288°
2026-05-04 09:08 39.12957 89.28453 35744 ft 461 kts 288°
2026-05-04 09:09 39.15315 89.20753 35725 ft 461 kts 288°
2026-05-04 09:09 39.17661 89.13067 35725 ft 460 kts 288°
2026-05-04 09:10 39.19606 89.06680 35703 ft 460 kts 288°
2026-05-04 09:10 39.22335 88.97692 35997 ft 461 kts 288°
2026-05-04 09:10 39.23501 88.93847 36270 ft 459 kts 288°
2026-05-04 09:11 39.24272 88.91300 36434 ft 458 kts 288°
2026-05-04 09:11 39.25804 88.86233 36720 ft 456 kts 288°
2026-05-04 09:11 39.26579 88.83662 36858 ft 456 kts 288°
2026-05-04 09:11 39.27728 88.79851 37068 ft 455 kts 288°
2026-05-04 09:12 39.28876 88.76038 37271 ft 454 kts 288°
2026-05-04 09:12 39.30018 88.72238 37451 ft 453 kts 288°
2026-05-04 09:14 39.37966 88.45637 37660 ft 454 kts 287°
2026-05-04 09:14 39.40218 88.38054 37654 ft 454 kts 287°
2026-05-04 09:15 39.42484 88.30403 37658 ft 454 kts 287°
2026-05-04 09:15 39.44740 88.22762 37657 ft 454 kts 287°
2026-05-04 09:17 39.54825 87.88333 37658 ft 455 kts 287°
2026-05-04 09:18 39.57042 87.80706 37673 ft 455 kts 286°
2026-05-04 09:18 39.59276 87.72997 37665 ft 456 kts 286°
2026-05-04 09:19 39.61506 87.65275 37668 ft 457 kts 287°
2026-05-04 09:19 39.63736 87.57537 37674 ft 458 kts 286°
2026-05-04 09:20 39.65963 87.49782 37667 ft 458 kts 286°
2026-05-04 09:20 39.68171 87.42075 37677 ft 458 kts 286°
2026-05-04 09:21 39.70387 87.34315 37676 ft 458 kts 286°
2026-05-04 09:21 39.72598 87.26548 37675 ft 458 kts 286°
2026-05-04 09:22 39.74804 87.18775 37670 ft 458 kts 286°
2026-05-04 09:22 39.77000 87.11017 37694 ft 457 kts 286°
2026-05-04 09:23 39.79191 87.03250 37668 ft 457 kts 286°
2026-05-04 09:23 39.81363 86.95529 37673 ft 458 kts 286°
2026-05-04 09:25 39.90085 86.64290 37671 ft 460 kts 285°
2026-05-04 09:26 39.92255 86.56456 37673 ft 460 kts 285°
2026-05-04 09:26 39.94408 86.48665 37675 ft 459 kts 285°
2026-05-04 09:27 39.96570 86.40809 37668 ft 459 kts 285°
2026-05-04 09:27 39.98724 86.32968 37679 ft 460 kts 285°
2026-05-04 09:28 40.00864 86.25146 37673 ft 460 kts 285°
2026-05-04 09:28 40.03016 86.17256 37684 ft 461 kts 285°
2026-05-04 09:29 40.05165 86.09355 37674 ft 462 kts 285°
2026-05-04 09:29 40.07311 86.01442 37682 ft 462 kts 285°
2026-05-04 09:30 40.09202 85.93474 37671 ft 460 kts 282°
2026-05-04 09:30 40.10956 85.85427 37686 ft 460 kts 282°
2026-05-04 09:31 40.12696 85.77424 37681 ft 461 kts 282°
2026-05-04 09:31 40.14456 85.69368 37683 ft 461 kts 282°
2026-05-04 09:32 40.16219 85.61304 37681 ft 461 kts 282°
2026-05-04 09:34 40.23211 85.29035 37684 ft 461 kts 281°
2026-05-04 09:34 40.24946 85.20949 37689 ft 461 kts 281°
2026-05-04 09:35 40.26665 85.12909 37685 ft 461 kts 281°
2026-05-04 09:35 40.28390 85.04812 37690 ft 460 kts 281°
2026-05-04 09:37 40.35203 84.72518 37691 ft 460 kts 281°
2026-05-04 09:38 40.36897 84.64411 37699 ft 461 kts 281°
2026-05-04 09:38 40.38590 84.56276 37690 ft 462 kts 281°
2026-05-04 09:39 40.40270 84.48177 37693 ft 463 kts 281°
2026-05-04 09:39 40.41961 84.39993 37693 ft 464 kts 281°
2026-05-04 09:40 40.43646 84.31804 37690 ft 465 kts 281°
2026-05-04 09:40 40.45327 84.23601 37688 ft 466 kts 280°
2026-05-04 09:42 40.52025 83.90635 37713 ft 468 kts 281°
2026-05-04 09:43 40.53751 83.82382 37711 ft 469 kts 281°
2026-05-04 09:43 40.55493 83.74108 37691 ft 469 kts 281°
2026-05-04 09:44 40.57225 83.65827 37697 ft 469 kts 281°
2026-05-04 09:46 40.64043 83.32754 37695 ft 468 kts 281°
2026-05-04 09:46 40.65735 83.24459 37697 ft 468 kts 281°
2026-05-04 09:47 40.67409 83.16225 37691 ft 468 kts 281°
2026-05-04 09:49 40.74093 82.83006 37682 ft 469 kts 281°
2026-05-04 09:51 40.79862 82.53894 37683 ft 469 kts 281°
2026-05-04 09:51 40.81499 82.45554 37681 ft 469 kts 281°
2026-05-04 09:52 40.83120 82.37266 37689 ft 469 kts 281°
2026-05-04 09:52 40.84745 82.28916 37686 ft 469 kts 281°
2026-05-04 09:53 40.86366 82.20555 37680 ft 469 kts 280°
2026-05-04 09:53 40.87969 82.12254 37688 ft 469 kts 280°
2026-05-04 09:54 40.89578 82.03885 37683 ft 469 kts 280°
2026-05-04 09:54 40.91179 81.95519 37687 ft 469 kts 280°
2026-05-04 09:55 40.92774 81.87151 37683 ft 469 kts 280°
2026-05-04 09:55 40.94362 81.78786 37682 ft 469 kts 280°
2026-05-04 09:56 40.95678 81.71827 37690 ft 469 kts 280°
2026-05-04 09:56 40.97283 81.63452 37700 ft 470 kts 282°
2026-05-04 09:57 40.99158 81.55124 37695 ft 471 kts 283°
2026-05-04 09:57 41.01083 81.46880 37685 ft 471 kts 283°
2026-05-04 09:58 41.02983 81.38566 37694 ft 471 kts 283°
2026-05-04 09:58 41.04856 81.30217 37689 ft 472 kts 283°
2026-05-04 10:00 41.12283 80.96699 37697 ft 475 kts 283°
2026-05-04 10:04 41.25109 80.37607 37699 ft 476 kts 283°
2026-05-04 10:04 41.26904 80.29198 37700 ft 475 kts 283°
2026-05-04 10:05 41.28690 80.20740 37713 ft 475 kts 283°
2026-05-04 10:05 41.30468 80.12270 37715 ft 475 kts 283°
2026-05-04 10:06 41.32242 80.03795 37714 ft 475 kts 283°
2026-05-04 10:06 41.34008 79.95324 37726 ft 474 kts 283°
2026-05-04 10:08 41.40115 79.65775 37751 ft 473 kts 283°
2026-05-04 10:08 41.41849 79.57304 37756 ft 473 kts 283°
2026-05-04 10:09 41.43575 79.48840 37756 ft 473 kts 283°
2026-05-04 10:09 41.45296 79.40367 37785 ft 473 kts 283°
2026-05-04 10:10 41.47000 79.31941 37815 ft 473 kts 282°
2026-05-04 10:10 41.48709 79.23460 37863 ft 473 kts 282°
2026-05-04 10:11 41.50410 79.14977 37850 ft 474 kts 282°
2026-05-04 10:11 41.52108 79.06473 37937 ft 474 kts 282°
2026-05-04 10:12 41.53804 78.97946 37952 ft 475 kts 282°
2026-05-04 10:12 41.55496 78.89403 37952 ft 475 kts 282°
2026-05-04 10:13 41.56491 78.80814 37984 ft 469 kts 271°
2026-05-04 10:13 41.56415 78.72141 38007 ft 466 kts 265°
2026-05-04 10:14 41.56084 78.63479 38011 ft 466 kts 265°
2026-05-04 10:16 41.54859 78.28936 38007 ft 467 kts 265°
2026-05-04 10:16 41.54544 78.20248 38015 ft 470 kts 265°
2026-05-04 10:17 41.54219 78.11503 38027 ft 472 kts 265°
2026-05-04 10:19 41.52855 77.76593 38038 ft 469 kts 265°
2026-05-04 10:19 41.52499 77.67880 38020 ft 469 kts 265°
2026-05-04 10:20 41.52139 77.59257 38033 ft 468 kts 265°
2026-05-04 10:20 41.51770 77.50571 38046 ft 468 kts 265°
2026-05-04 10:21 41.51395 77.41885 38043 ft 468 kts 265°
2026-05-04 10:21 41.51013 77.33200 38043 ft 469 kts 265°
2026-05-04 10:22 41.50427 77.20160 38040 ft 469 kts 265°
2026-05-04 10:23 41.50031 77.11521 38041 ft 470 kts 265°
2026-05-04 10:25 41.48360 76.76530 37990 ft 474 kts 265°
2026-05-04 10:25 41.47925 76.67771 38008 ft 471 kts 265°
2026-05-04 10:26 41.47488 76.59105 37996 ft 469 kts 265°
2026-05-04 10:26 41.47044 76.50440 38013 ft 467 kts 264°
2026-05-04 10:27 41.46595 76.41802 38008 ft 467 kts 264°
2026-05-04 10:27 41.46140 76.33175 38006 ft 469 kts 264°
2026-05-04 10:28 41.45675 76.24491 38019 ft 469 kts 264°
2026-05-04 10:28 41.45204 76.15815 38005 ft 470 kts 264°
2026-05-04 10:29 41.44727 76.07121 38002 ft 470 kts 264°
2026-05-04 10:29 41.44246 75.98479 38003 ft 471 kts 264°
2026-05-04 10:30 41.43753 75.89764 37999 ft 472 kts 264°
2026-05-04 10:30 41.43253 75.81017 37999 ft 472 kts 264°
2026-05-04 10:31 41.42747 75.72276 38002 ft 473 kts 264°
2026-05-04 10:32 41.40926 75.41648 38039 ft 474 kts 264°
2026-05-04 10:33 41.40390 75.32870 38046 ft 475 kts 264°
2026-05-04 10:33 41.39847 75.24085 38047 ft 476 kts 264°
2026-05-04 10:34 41.39301 75.15357 38046 ft 476 kts 264°
2026-05-04 10:34 41.38743 75.06552 38054 ft 477 kts 264°
2026-05-04 10:35 41.38178 74.97745 38045 ft 477 kts 263°
2026-05-04 10:35 41.37607 74.88926 38057 ft 477 kts 263°
2026-05-04 10:36 41.37028 74.80105 38045 ft 478 kts 263°
2026-05-04 10:36 41.36443 74.71279 38052 ft 478 kts 263°
2026-05-04 10:37 41.35852 74.62451 38054 ft 478 kts 263°
2026-05-04 10:37 41.35257 74.53677 38051 ft 478 kts 263°
2026-05-04 10:39 41.33118 74.22874 38063 ft 478 kts 263°
2026-05-04 10:40 41.32598 74.15552 38074 ft 477 kts 263°
2026-05-04 10:40 41.31865 74.05323 38082 ft 477 kts 263°
2026-05-04 10:41 41.31344 73.97968 38085 ft 477 kts 264°
2026-05-04 10:41 41.30949 73.89143 38087 ft 478 kts 265°
2026-05-04 10:42 41.30634 73.80354 38083 ft 479 kts 265°
2026-05-04 10:42 41.30282 73.71480 38095 ft 479 kts 265°
2026-05-04 10:43 41.29900 73.62621 38105 ft 480 kts 265°
2026-05-04 10:45 41.28266 73.27075 38101 ft 483 kts 265°
2026-05-04 10:45 41.27845 73.18217 38086 ft 483 kts 265°
2026-05-04 10:46 41.27413 73.09303 38088 ft 483 kts 265°
2026-05-04 10:46 41.26974 73.00391 38075 ft 483 kts 265°
2026-05-04 10:47 41.26528 72.91477 38066 ft 483 kts 265°
2026-05-04 10:47 41.26079 72.82617 38071 ft 483 kts 265°
2026-05-04 10:49 41.24177 72.46944 38028 ft 484 kts 264°
2026-05-04 10:50 41.23675 72.38075 38014 ft 484 kts 264°
2026-05-04 10:52 41.21639 72.02297 38027 ft 486 kts 265°
2026-05-04 10:52 41.21129 71.93393 38009 ft 486 kts 265°
2026-05-04 10:54 41.18972 71.57536 37989 ft 487 kts 265°
2026-05-04 10:56 41.16692 71.21780 38007 ft 485 kts 265°
2026-05-04 10:57 41.16106 71.12854 38037 ft 485 kts 265°
2026-05-04 10:57 41.15514 71.03939 38028 ft 485 kts 265°
2026-05-04 10:58 41.14913 70.95012 38059 ft 485 kts 265°
2026-05-04 10:58 41.14311 70.86154 38053 ft 485 kts 265°
2026-05-04 10:59 41.13697 70.77221 38054 ft 485 kts 265°
2026-05-04 10:59 41.13073 70.68281 38078 ft 486 kts 264°
2026-05-04 11:00 41.12423 70.59366 38087 ft 486 kts 264°
2026-05-04 11:02 41.09962 70.23722 38076 ft 484 kts 271°
2026-05-04 11:05 41.15615 69.57287 38024 ft 485 kts 277°
2026-05-04 11:06 41.16358 69.48396 38012 ft 485 kts 277°
2026-05-04 11:06 41.17092 69.39541 38009 ft 485 kts 277°
2026-05-04 11:10 41.20655 68.77186 37992 ft 483 kts 279°
2026-05-04 11:12 41.23975 68.41812 37990 ft 482 kts 278°
2026-05-04 11:12 41.24779 68.32958 37985 ft 482 kts 278°
2026-05-04 11:13 41.25577 68.24105 37987 ft 482 kts 278°
2026-05-04 11:13 41.26368 68.15255 37981 ft 481 kts 278°
2026-05-04 11:14 41.27145 68.06484 37983 ft 480 kts 278°
2026-05-04 11:16 41.31674 67.71655 37982 ft 477 kts 283°
2026-05-04 11:16 41.33023 67.63010 37982 ft 478 kts 283°
2026-05-04 11:17 41.34358 67.54340 37983 ft 478 kts 283°
2026-05-04 11:19 41.39602 67.19820 37976 ft 474 kts 283°
2026-05-04 11:19 41.40892 67.11217 37982 ft 473 kts 283°
2026-05-04 11:20 41.42172 67.02638 37982 ft 471 kts 283°
2026-05-04 11:20 41.43434 66.94129 37982 ft 470 kts 283°
2026-05-04 11:22 41.48270 66.59941 37983 ft 469 kts 277°
2026-05-04 11:23 41.48393 66.51223 37987 ft 470 kts 272°
2026-05-04 11:25 41.48367 66.22251 37978 ft 469 kts 272°
2026-05-04 11:25 41.48367 66.12146 37994 ft 468 kts 272°
2026-05-04 11:27 41.48272 65.74609 37985 ft 466 kts 271°
2026-05-04 11:28 41.48174 65.65963 37987 ft 466 kts 271°
2026-05-04 11:28 41.48064 65.57313 37981 ft 465 kts 271°
2026-05-04 11:29 41.47953 65.48699 37985 ft 464 kts 271°
2026-05-04 11:29 41.47841 65.40163 37983 ft 463 kts 271°
2026-05-04 11:33 41.46883 64.80340 37991 ft 459 kts 270°
2026-05-04 11:33 41.46722 64.71872 37987 ft 459 kts 270°
2026-05-04 11:34 41.46555 64.63361 37992 ft 459 kts 270°
2026-05-04 11:34 41.46381 64.54860 37994 ft 459 kts 270°
2026-05-04 11:35 41.46200 64.46347 37994 ft 459 kts 270°
2026-05-04 11:35 41.46013 64.37827 37996 ft 459 kts 270°
2026-05-04 11:36 41.45822 64.29360 37987 ft 459 kts 270°
2026-05-04 11:36 41.45622 64.20836 37983 ft 460 kts 270°
2026-05-04 11:37 41.45416 64.12305 37993 ft 460 kts 270°
2026-05-04 11:37 41.45205 64.03810 37973 ft 460 kts 270°
2026-05-04 11:38 41.44986 63.95278 37987 ft 460 kts 270°
2026-05-04 11:38 41.44761 63.86765 37986 ft 459 kts 269°
2026-05-04 11:39 41.44532 63.78301 37985 ft 458 kts 269°
2026-05-04 11:41 41.43646 63.48625 37980 ft 457 kts 269°
2026-05-04 11:41 41.43372 63.40216 37972 ft 457 kts 269°
2026-05-04 11:42 41.43093 63.31752 37978 ft 457 kts 269°
2026-05-04 11:42 41.42807 63.23299 37970 ft 457 kts 269°
2026-05-04 11:43 41.42515 63.14845 37970 ft 457 kts 269°
2026-05-04 11:43 41.42217 63.06382 37964 ft 457 kts 269°
2026-05-04 11:44 41.41914 62.97966 37958 ft 457 kts 269°
2026-05-04 11:44 41.41603 62.89504 37962 ft 457 kts 269°
2026-05-04 11:45 41.41287 62.81048 37954 ft 457 kts 268°
2026-05-04 11:45 41.40964 62.72589 37961 ft 457 kts 268°
2026-05-04 11:46 41.40637 62.64183 37959 ft 456 kts 268°
2026-05-04 11:46 41.40302 62.55718 37968 ft 456 kts 268°
2026-05-04 11:47 41.39967 62.47269 37959 ft 456 kts 268°
2026-05-04 11:47 41.39658 62.38866 37960 ft 456 kts 268°
2026-05-04 11:48 41.39348 62.30421 37963 ft 456 kts 268°
2026-05-04 11:48 41.39028 62.21965 37950 ft 456 kts 268°
2026-05-04 11:49 41.38700 62.13523 37964 ft 457 kts 268°
2026-05-04 11:49 41.38365 62.05060 37973 ft 457 kts 268°
2026-05-04 11:50 41.38023 61.96596 37971 ft 458 kts 268°
2026-05-04 11:50 41.37677 61.88166 37963 ft 458 kts 268°
2026-05-04 11:51 41.37322 61.79671 37961 ft 459 kts 268°
2026-05-04 11:51 41.36961 61.71193 37986 ft 459 kts 268°
2026-05-04 11:52 41.36596 61.62747 37966 ft 459 kts 268°
2026-05-04 11:52 41.36222 61.54245 37970 ft 459 kts 268°
2026-05-04 11:53 41.35843 61.45753 37972 ft 459 kts 268°
2026-05-04 11:53 41.35458 61.37314 37973 ft 459 kts 267°
2026-05-04 11:55 41.33844 61.03480 37972 ft 457 kts 267°
2026-05-04 11:56 41.33426 60.95037 37969 ft 456 kts 267°
2026-05-04 11:56 41.33004 60.86613 37967 ft 456 kts 267°
2026-05-04 11:57 41.32576 60.78213 37969 ft 455 kts 266°
2026-05-04 11:57 41.32144 60.69849 37969 ft 455 kts 266°
2026-05-04 11:58 41.31703 60.61441 37965 ft 455 kts 266°
2026-05-04 11:58 41.31258 60.53046 37964 ft 455 kts 266°
2026-05-04 11:59 41.30812 60.44647 37964 ft 455 kts 268°
2026-05-04 11:59 41.30966 60.36255 37979 ft 454 kts 274°
2026-05-04 12:00 41.31420 60.27879 37972 ft 454 kts 274°
2026-05-04 12:00 41.31838 60.19494 37973 ft 454 kts 274°
2026-05-04 12:01 41.32235 60.11160 37962 ft 454 kts 273°
2026-05-04 12:02 41.33614 59.81822 37963 ft 454 kts 273°
2026-05-04 12:03 41.33998 59.73431 37964 ft 454 kts 273°
2026-05-04 12:03 41.34151 59.65025 37959 ft 454 kts 267°
2026-05-04 12:04 41.33414 59.56683 37961 ft 454 kts 263°
2026-05-04 12:04 41.32608 59.48410 37961 ft 454 kts 263°
2026-05-04 12:05 41.31811 59.40063 37954 ft 454 kts 263°
2026-05-04 12:05 41.31020 59.31725 37951 ft 454 kts 263°
2026-05-04 12:06 41.30230 59.23437 37951 ft 454 kts 263°
2026-05-04 12:06 41.29429 59.15107 37951 ft 454 kts 263°
2026-05-04 12:07 41.28620 59.06760 37948 ft 454 kts 263°
2026-05-04 12:07 41.27805 58.98418 37945 ft 454 kts 263°
2026-05-04 12:08 41.26991 58.90146 37943 ft 454 kts 263°
2026-05-04 12:08 41.26165 58.81826 37936 ft 454 kts 263°
2026-05-04 12:09 41.25335 58.73516 37937 ft 453 kts 263°
2026-05-04 12:09 41.24498 58.65201 37934 ft 453 kts 262°
2026-05-04 12:10 41.23661 58.56950 37932 ft 453 kts 262°
2026-05-04 12:10 41.22813 58.48653 37933 ft 453 kts 262°
2026-05-04 12:11 41.21959 58.40352 37927 ft 453 kts 262°
2026-05-04 12:11 41.21098 58.32046 37927 ft 453 kts 262°
2026-05-04 12:12 41.20233 58.23759 37911 ft 453 kts 262°
2026-05-04 12:12 41.19362 58.15460 37919 ft 453 kts 262°
2026-05-04 12:14 41.15802 57.82309 37910 ft 454 kts 262°
2026-05-04 12:15 41.15050 57.75414 37907 ft 454 kts 262°
2026-05-04 12:15 41.13991 57.65776 37905 ft 454 kts 262°
2026-05-04 12:16 41.13227 57.58871 37911 ft 454 kts 261°
2026-05-04 12:16 41.12303 57.50569 37900 ft 454 kts 261°
2026-05-04 12:17 41.11372 57.42264 37892 ft 454 kts 261°
2026-05-04 12:17 41.10443 57.34027 37896 ft 454 kts 261°
2026-05-04 12:18 41.09502 57.25743 37883 ft 454 kts 261°
2026-05-04 12:18 41.08555 57.17456 37887 ft 453 kts 261°
2026-05-04 12:19 41.07603 57.09182 37884 ft 453 kts 261°
2026-05-04 12:19 41.06648 57.00934 37882 ft 453 kts 261°
2026-05-04 12:20 41.05687 56.92686 37881 ft 453 kts 261°
2026-05-04 12:20 41.04725 56.84490 37880 ft 452 kts 261°
2026-05-04 12:21 41.03753 56.76252 37873 ft 452 kts 261°
2026-05-04 12:21 41.02777 56.68027 37877 ft 452 kts 261°
2026-05-04 12:22 41.01794 56.59798 37876 ft 452 kts 261°
2026-05-04 12:22 41.00834 56.51567 37865 ft 451 kts 263°
2026-05-04 12:23 41.00569 56.43312 37875 ft 451 kts 269°
2026-05-04 12:23 41.00509 56.34995 37865 ft 452 kts 269°
2026-05-04 12:24 41.00420 56.26711 37853 ft 452 kts 268°
2026-05-04 12:24 41.00313 56.18379 37861 ft 452 kts 268°
2026-05-04 12:25 41.00197 56.10040 37854 ft 452 kts 268°
2026-05-04 12:25 41.00078 56.01763 37854 ft 452 kts 268°
2026-05-04 12:26 40.99951 55.93406 38105 ft 454 kts 268°
2026-05-04 12:26 40.99886 55.89222 38328 ft 453 kts 268°
2026-05-04 12:26 40.99820 55.85055 38553 ft 452 kts 268°
2026-05-04 12:27 40.99752 55.80879 38723 ft 452 kts 268°
2026-05-04 12:27 40.99683 55.76773 38889 ft 451 kts 268°
2026-05-04 12:27 40.99616 55.72623 39094 ft 449 kts 268°
2026-05-04 12:27 40.99550 55.68487 39225 ft 450 kts 268°
2026-05-04 12:28 40.99483 55.64346 39336 ft 450 kts 268°
2026-05-04 12:28 40.99416 55.60200 39472 ft 450 kts 268°
2026-05-04 12:28 40.99346 55.56045 39611 ft 450 kts 268°
2026-05-04 12:28 40.99275 55.51907 39717 ft 450 kts 268°
2026-05-04 12:29 40.99127 55.43589 39824 ft 452 kts 268°
2026-05-04 12:29 40.98973 55.35263 39848 ft 452 kts 268°
2026-05-04 12:30 40.98814 55.27012 39851 ft 451 kts 268°
2026-05-04 12:30 40.98648 55.18717 39858 ft 450 kts 268°
2026-05-04 12:31 40.98477 55.10450 39853 ft 449 kts 268°
2026-05-04 12:31 40.98300 55.02180 39859 ft 448 kts 268°
2026-05-04 12:32 40.98027 54.89838 39861 ft 446 kts 268°
2026-05-04 12:33 40.97833 54.81636 39859 ft 446 kts 267°
2026-05-04 12:33 40.97631 54.73485 39858 ft 445 kts 267°
2026-05-04 12:34 40.97424 54.65299 39864 ft 445 kts 267°
2026-05-04 12:34 40.97212 54.57102 39853 ft 445 kts 267°
2026-05-04 12:35 40.96994 54.48915 39854 ft 445 kts 267°
2026-05-04 12:35 40.96770 54.40736 39855 ft 444 kts 267°
2026-05-04 12:36 40.96541 54.32550 39855 ft 444 kts 267°
2026-05-04 12:36 40.96306 54.24371 39854 ft 444 kts 267°
2026-05-04 12:37 40.96067 54.16241 39855 ft 444 kts 267°
2026-05-04 12:37 40.95820 54.08059 39863 ft 445 kts 267°
2026-05-04 12:38 40.95567 53.99864 39854 ft 445 kts 266°
2026-05-04 12:38 40.95310 53.91719 39855 ft 446 kts 266°
2026-05-04 12:39 40.95045 53.83503 39854 ft 446 kts 266°
2026-05-04 12:39 40.94774 53.75289 39859 ft 447 kts 266°
2026-05-04 12:40 40.94497 53.67070 39857 ft 447 kts 266°
2026-05-04 12:40 40.94216 53.58889 39860 ft 447 kts 266°
2026-05-04 12:41 40.93927 53.50659 39859 ft 448 kts 266°
2026-05-04 12:41 40.93632 53.42431 39855 ft 448 kts 266°
2026-05-04 12:42 40.93331 53.34186 39864 ft 448 kts 266°
2026-05-04 12:42 40.93027 53.26015 39859 ft 447 kts 266°
2026-05-04 12:43 40.92716 53.17798 39863 ft 447 kts 266°
2026-05-04 12:43 40.92397 53.09579 39863 ft 446 kts 266°
2026-05-04 12:44 40.92058 53.01371 39874 ft 446 kts 266°
2026-05-04 12:44 40.91716 52.93244 39865 ft 445 kts 266°
2026-05-04 12:45 40.91369 52.85088 39882 ft 444 kts 266°
2026-05-04 12:45 40.91018 52.76953 39870 ft 443 kts 265°
2026-05-04 12:46 40.90663 52.68826 39874 ft 442 kts 265°
2026-05-04 12:46 40.90239 52.60708 39879 ft 441 kts 262°
2026-05-04 12:47 40.89108 52.52811 39867 ft 440 kts 258°
2026-05-04 12:47 40.87838 52.44899 39877 ft 440 kts 258°
2026-05-04 12:48 40.86583 52.36992 39878 ft 440 kts 258°
2026-05-04 12:48 40.85332 52.29080 39874 ft 440 kts 258°
2026-05-04 12:49 40.84076 52.21165 39875 ft 440 kts 258°
2026-05-04 12:49 40.82820 52.13286 39874 ft 441 kts 258°
2026-05-04 12:50 40.81552 52.05370 39879 ft 441 kts 257°
2026-05-04 12:50 40.80274 51.97434 39874 ft 442 kts 257°
2026-05-04 12:51 40.78987 51.89478 39872 ft 443 kts 257°
2026-05-04 12:51 40.77695 51.81526 39872 ft 444 kts 257°
2026-05-04 12:52 40.76396 51.73565 39869 ft 444 kts 257°
2026-05-04 12:52 40.75096 51.65638 39869 ft 444 kts 257°
2026-05-04 12:53 40.73784 51.57662 39869 ft 444 kts 257°
2026-05-04 12:53 40.72564 51.49676 39865 ft 444 kts 261°
2026-05-04 12:54 40.72132 51.41549 39863 ft 444 kts 265°
2026-05-04 12:54 40.71838 51.33402 39866 ft 444 kts 265°
2026-05-04 12:55 40.71520 51.25318 39874 ft 444 kts 265°
2026-05-04 12:55 40.71186 51.17179 39860 ft 444 kts 265°
2026-05-04 12:56 40.70846 51.09060 39869 ft 444 kts 265°
2026-05-04 12:56 40.70501 51.00963 39860 ft 444 kts 265°
2026-05-04 12:57 40.70150 50.92844 39854 ft 444 kts 265°
2026-05-04 12:57 40.69793 50.84715 39869 ft 443 kts 264°
2026-05-04 12:58 40.69431 50.76599 39854 ft 443 kts 264°
2026-05-04 12:58 40.69066 50.68546 39860 ft 442 kts 264°
2026-05-04 12:59 40.68693 50.60452 39850 ft 442 kts 264°
2026-05-04 12:59 40.68315 50.52357 39832 ft 441 kts 264°
2026-05-04 13:00 40.67998 50.45646 39838 ft 441 kts 264°
2026-05-04 13:00 40.67547 50.36266 39837 ft 441 kts 264°
2026-05-04 13:01 40.67219 50.29560 39837 ft 440 kts 264°
2026-05-04 13:01 40.66822 50.21507 39832 ft 441 kts 264°
2026-05-04 13:02 40.66419 50.13457 39833 ft 441 kts 264°
2026-05-04 13:02 40.66010 50.05387 39837 ft 442 kts 263°
2026-05-04 13:03 40.65595 49.97309 39833 ft 442 kts 263°
2026-05-04 13:03 40.65174 49.89232 39829 ft 442 kts 263°
2026-05-04 13:04 40.64750 49.81211 39834 ft 442 kts 263°
2026-05-04 13:04 40.64318 49.73132 39831 ft 442 kts 263°
2026-05-04 13:05 40.63879 49.65039 39836 ft 441 kts 263°
2026-05-04 13:05 40.63437 49.56981 39831 ft 440 kts 263°
2026-05-04 13:06 40.62993 49.48986 39844 ft 440 kts 263°
2026-05-04 13:06 40.62539 49.40942 39827 ft 440 kts 263°
2026-05-04 13:07 40.62082 49.32913 39836 ft 439 kts 263°
2026-05-04 13:07 40.61623 49.24934 39825 ft 440 kts 263°
2026-05-04 13:08 40.61176 49.16893 39827 ft 441 kts 264°
2026-05-04 13:08 40.61003 49.08812 39825 ft 442 kts 266°
2026-05-04 13:09 40.60899 49.00706 39823 ft 442 kts 265°
2026-05-04 13:09 40.60757 48.92606 39821 ft 443 kts 265°
2026-05-04 13:10 40.60586 48.84484 39829 ft 444 kts 265°
2026-05-04 13:10 40.60403 48.76385 39821 ft 445 kts 265°
2026-05-04 13:11 40.60213 48.68226 39822 ft 446 kts 265°
2026-05-04 13:11 40.60020 48.60052 39838 ft 446 kts 265°
2026-05-04 13:12 40.59819 48.51872 39835 ft 447 kts 265°
2026-05-04 13:12 40.59613 48.43692 39862 ft 447 kts 264°
2026-05-04 13:13 40.59403 48.35550 39848 ft 448 kts 264°
2026-05-04 13:13 40.59184 48.27300 39849 ft 448 kts 264°
2026-05-04 13:14 40.58963 48.19157 39846 ft 448 kts 264°
2026-05-04 13:14 40.58740 48.10972 39857 ft 447 kts 264°
2026-05-04 13:15 40.58518 48.02787 39860 ft 447 kts 264°
2026-05-04 13:15 40.58314 47.94604 39863 ft 447 kts 266°
2026-05-04 13:16 40.58557 47.86399 39855 ft 449 kts 268°
2026-05-04 13:16 40.58857 47.78184 39852 ft 449 kts 268°
2026-05-04 13:17 40.59137 47.70013 39850 ft 449 kts 268°
2026-05-04 13:17 40.59402 47.61809 39848 ft 449 kts 268°
2026-05-04 13:18 40.59659 47.53585 39851 ft 449 kts 268°
2026-05-04 13:18 40.59910 47.45366 39854 ft 449 kts 268°
2026-05-04 13:19 40.60155 47.37196 39856 ft 449 kts 268°
2026-05-04 13:19 40.60396 47.28975 39855 ft 450 kts 268°
2026-05-04 13:20 40.60632 47.20752 39860 ft 450 kts 268°
2026-05-04 13:20 40.61247 47.12521 39871 ft 453 kts 273°
2026-05-04 13:21 40.62121 47.04296 39879 ft 454 kts 273°
2026-05-04 13:21 40.62978 46.96097 39864 ft 455 kts 273°
2026-05-04 13:22 40.63826 46.87804 39854 ft 457 kts 272°
2026-05-04 13:22 40.64662 46.79507 39837 ft 458 kts 272°
2026-05-04 13:23 40.65494 46.71185 39837 ft 458 kts 272°
2026-05-04 13:23 40.66321 46.62850 39856 ft 459 kts 272°
2026-05-04 13:24 40.67143 46.54508 39862 ft 460 kts 272°
2026-05-04 13:24 40.67961 46.46140 39862 ft 461 kts 272°
2026-05-04 13:25 40.69174 46.33625 39853 ft 461 kts 272°
2026-05-04 13:25 40.69979 46.25235 39892 ft 461 kts 272°
2026-05-04 13:26 40.70772 46.16901 39858 ft 460 kts 272°
2026-05-04 13:26 40.71565 46.08525 39835 ft 459 kts 272°
2026-05-04 13:27 40.72347 46.00174 39838 ft 459 kts 272°
2026-05-04 13:27 40.73123 45.91819 39827 ft 459 kts 272°
2026-05-04 13:28 40.73894 45.83456 39839 ft 459 kts 272°
2026-05-04 13:28 40.74654 45.75154 39835 ft 459 kts 272°
2026-05-04 13:29 40.75413 45.66783 39825 ft 459 kts 271°
2026-05-04 13:29 40.76169 45.58397 39826 ft 460 kts 271°
2026-05-04 13:30 40.76908 45.50027 39839 ft 459 kts 270°
2026-05-04 13:30 40.77348 45.41630 39840 ft 458 kts 268°
2026-05-04 13:31 40.77697 45.33264 39836 ft 461 kts 268°
2026-05-04 13:31 40.78060 45.24790 39844 ft 463 kts 268°
2026-05-04 13:32 40.78433 45.16267 39834 ft 465 kts 268°
2026-05-04 13:32 40.78802 45.07785 39832 ft 466 kts 268°
2026-05-04 13:33 40.79174 44.99238 39840 ft 467 kts 268°
2026-05-04 13:33 40.79531 44.90679 39848 ft 468 kts 268°
2026-05-04 13:34 40.79880 44.82073 39829 ft 468 kts 268°
2026-05-04 13:34 40.80227 44.73564 39825 ft 467 kts 268°
2026-05-04 13:35 40.80736 44.60737 39833 ft 466 kts 268°
2026-05-04 13:36 40.81075 44.52162 39848 ft 466 kts 268°
2026-05-04 13:36 40.81394 44.43664 39854 ft 465 kts 268°
2026-05-04 13:37 40.81705 44.35111 39858 ft 467 kts 268°
2026-05-04 13:37 40.82015 44.26533 39865 ft 468 kts 268°
2026-05-04 13:38 40.82323 44.17941 39872 ft 469 kts 268°
2026-05-04 13:38 40.82626 44.09306 39877 ft 471 kts 268°
2026-05-04 13:39 40.82921 44.00715 39865 ft 471 kts 268°
2026-05-04 13:39 40.83211 43.92045 39873 ft 472 kts 268°
2026-05-04 13:40 40.83495 43.83379 39857 ft 472 kts 268°
2026-05-04 13:40 40.83789 43.74701 39854 ft 472 kts 268°
2026-05-04 13:41 40.84095 43.66089 39859 ft 473 kts 268°
2026-05-04 13:41 40.84564 43.57397 39857 ft 475 kts 269°
2026-05-04 13:42 40.85338 43.44332 39856 ft 475 kts 269°
2026-05-04 13:42 40.85824 43.35615 39869 ft 476 kts 269°
2026-05-04 13:43 40.86293 43.26885 39859 ft 476 kts 269°
2026-05-04 13:43 40.86751 43.18201 39874 ft 476 kts 269°
2026-05-04 13:44 40.87206 43.09465 39865 ft 476 kts 269°
2026-05-04 13:44 40.87655 43.00713 39866 ft 477 kts 269°
2026-05-04 13:45 40.88023 42.93443 39878 ft 477 kts 269°
2026-05-04 13:45 40.88460 42.84688 39892 ft 477 kts 269°
2026-05-04 13:46 40.88892 42.75913 39886 ft 479 kts 269°
2026-05-04 13:46 40.89319 42.67102 39872 ft 480 kts 269°
2026-05-04 13:47 40.89737 42.58337 39865 ft 481 kts 269°
2026-05-04 13:47 40.90153 42.49481 39886 ft 482 kts 269°
2026-05-04 13:48 40.90561 42.40618 39869 ft 483 kts 269°
2026-05-04 13:48 40.90963 42.31738 39864 ft 484 kts 269°
2026-05-04 13:49 40.91359 42.22893 39846 ft 485 kts 269°
2026-05-04 13:49 40.91750 42.13966 39837 ft 486 kts 269°
2026-05-04 13:50 40.92134 42.05024 39833 ft 487 kts 269°
2026-05-04 13:50 40.92513 41.96055 39831 ft 488 kts 269°
2026-05-04 13:51 40.92884 41.87129 39818 ft 489 kts 269°
2026-05-04 13:51 40.93249 41.78138 39818 ft 488 kts 269°
2026-05-04 13:52 40.93785 41.64711 39812 ft 487 kts 269°
2026-05-04 13:53 40.94129 41.55822 39828 ft 486 kts 269°
2026-05-04 13:53 40.94464 41.46887 39801 ft 485 kts 269°
2026-05-04 13:54 40.94962 41.33552 39849 ft 483 kts 269°
2026-05-04 13:55 40.95439 41.20312 39870 ft 483 kts 269°
2026-05-04 13:55 40.95901 41.06894 39869 ft 489 kts 269°
2026-05-04 13:56 40.96207 40.97873 39876 ft 491 kts 269°
2026-05-04 13:57 40.96652 40.84292 39899 ft 493 kts 269°
2026-05-04 13:58 40.97210 40.66149 39872 ft 496 kts 269°
2026-05-04 13:58 40.97604 40.52803 39846 ft 496 kts 269°
2026-05-04 13:59 40.97862 40.43736 39840 ft 495 kts 268°
2026-05-04 14:00 40.98237 40.30343 39836 ft 495 kts 268°
2026-05-04 14:00 40.98582 40.17278 39836 ft 494 kts 268°
2026-05-04 14:01 40.98812 40.08239 39850 ft 494 kts 268°
2026-05-04 14:02 40.99149 39.94581 39862 ft 494 kts 268°
2026-05-04 14:02 40.99365 39.85476 39861 ft 495 kts 268°
2026-05-04 14:03 40.99740 39.76347 39858 ft 498 kts 274°
2026-05-04 14:03 41.00629 39.67304 39866 ft 499 kts 274°
2026-05-04 14:04 41.01994 39.53593 39851 ft 500 kts 274°
2026-05-04 14:04 41.02860 39.44428 39837 ft 501 kts 274°
2026-05-04 14:05 41.04136 39.30716 39822 ft 501 kts 274°
2026-05-04 14:06 41.04983 39.21532 39812 ft 501 kts 274°
2026-05-04 14:06 41.05825 39.12347 39809 ft 501 kts 274°
2026-05-04 14:07 41.06678 39.03168 39803 ft 501 kts 274°
2026-05-04 14:07 41.07526 38.94054 39809 ft 501 kts 274°
2026-05-04 14:08 41.08327 38.85345 39826 ft 501 kts 274°
2026-05-04 14:08 41.09143 38.76378 39823 ft 501 kts 274°
2026-05-04 14:09 41.10341 38.62648 39819 ft 501 kts 273°
2026-05-04 14:10 41.11483 38.48936 39835 ft 501 kts 274°
2026-05-04 14:10 41.12253 38.39822 39833 ft 501 kts 274°
2026-05-04 14:11 41.13018 38.30638 39834 ft 501 kts 273°
2026-05-04 14:11 41.14138 38.16892 39834 ft 501 kts 273°
2026-05-04 14:12 41.14877 38.07672 39842 ft 501 kts 274°
2026-05-04 14:13 41.15973 37.93850 39829 ft 501 kts 273°
2026-05-04 14:13 41.16704 37.84695 39832 ft 502 kts 274°
2026-05-04 14:14 41.17512 37.75510 39828 ft 502 kts 274°
2026-05-04 14:14 41.18713 37.61682 39831 ft 502 kts 274°
2026-05-04 14:15 41.19853 37.43189 39845 ft 502 kts 274°
2026-05-04 14:16 41.20911 37.29362 39837 ft 503 kts 273°
2026-05-04 14:17 41.21933 37.15497 39844 ft 503 kts 274°
2026-05-04 14:18 41.23040 37.01672 39839 ft 503 kts 274°
2026-05-04 14:19 41.24474 36.83182 39850 ft 503 kts 274°
2026-05-04 14:19 41.25178 36.73913 39869 ft 504 kts 274°
2026-05-04 14:20 41.25877 36.64625 39868 ft 505 kts 274°
2026-05-04 14:20 41.26727 36.55400 39837 ft 507 kts 279°
2026-05-04 14:21 41.29808 36.41946 39848 ft 508 kts 288°
2026-05-04 14:21 41.32134 36.33062 39847 ft 507 kts 288°
2026-05-04 14:22 41.34400 36.24235 39852 ft 506 kts 287°
2026-05-04 14:22 41.36648 36.15335 39853 ft 505 kts 287°
2026-05-04 14:23 41.39985 36.02023 39850 ft 505 kts 287°
2026-05-04 14:24 41.42204 35.93140 39847 ft 506 kts 287°
2026-05-04 14:24 41.44408 35.84287 39851 ft 507 kts 287°
2026-05-04 14:25 41.46628 35.75338 39860 ft 508 kts 287°
2026-05-04 14:25 41.49950 35.61881 39855 ft 509 kts 287°
2026-05-04 14:26 41.52145 35.52947 39851 ft 510 kts 287°
2026-05-04 14:26 41.54351 35.43934 39851 ft 510 kts 287°
2026-05-04 14:27 41.56546 35.34926 39856 ft 510 kts 287°
2026-05-04 14:27 41.58727 35.25947 39838 ft 511 kts 287°
2026-05-04 14:28 41.60915 35.16903 39846 ft 510 kts 287°
2026-05-04 14:28 41.63092 35.07866 39841 ft 510 kts 287°
2026-05-04 14:29 41.67416 34.89813 39841 ft 510 kts 288°
2026-05-04 14:30 41.69570 34.80766 39833 ft 510 kts 287°
2026-05-04 14:31 41.72425 34.68722 39839 ft 509 kts 288°
2026-05-04 14:32 41.76681 34.50645 39831 ft 508 kts 288°
2026-05-04 14:32 41.78779 34.41667 39825 ft 508 kts 288°
2026-05-04 14:33 41.80891 34.32598 39829 ft 509 kts 287°
2026-05-04 14:33 41.82997 34.23516 39838 ft 510 kts 287°
2026-05-04 14:34 41.85098 34.14420 39842 ft 511 kts 287°
2026-05-04 14:34 41.87196 34.05303 39835 ft 512 kts 287°
2026-05-04 14:35 41.89276 33.96223 39849 ft 512 kts 287°
2026-05-04 14:35 41.91366 33.87065 39841 ft 513 kts 287°
2026-05-04 14:36 41.93447 33.77903 39842 ft 513 kts 287°
2026-05-04 14:36 41.95513 33.68743 39842 ft 512 kts 286°
2026-05-04 14:37 41.97338 33.59488 39848 ft 511 kts 284°
2026-05-04 14:37 41.99060 33.50206 39843 ft 511 kts 285°
2026-05-04 14:38 42.00797 33.41012 39850 ft 510 kts 285°
2026-05-04 14:38 42.02567 33.31744 39847 ft 510 kts 285°
2026-05-04 14:39 42.04325 33.22509 39853 ft 509 kts 285°
2026-05-04 14:39 42.06070 33.13274 39848 ft 508 kts 285°
2026-05-04 14:40 42.08755 32.99527 39859 ft 508 kts 287°
2026-05-04 14:40 42.10667 32.90361 39865 ft 509 kts 287°
2026-05-04 14:41 42.12561 32.81156 39853 ft 509 kts 287°
2026-05-04 14:42 42.16291 32.62739 39868 ft 511 kts 287°
2026-05-04 14:42 42.18152 32.53476 39853 ft 512 kts 287°
2026-05-04 14:43 42.20007 32.44191 39865 ft 512 kts 286°
2026-05-04 14:43 42.21853 32.34903 39858 ft 512 kts 287°
2026-05-04 14:44 42.23681 32.25670 39861 ft 512 kts 287°
2026-05-04 14:44 42.25515 32.16379 39857 ft 511 kts 286°
2026-05-04 14:45 42.27338 32.07117 39846 ft 509 kts 286°
2026-05-04 14:45 42.29128 31.97930 39848 ft 508 kts 286°
2026-05-04 14:46 42.30916 31.88707 39851 ft 506 kts 286°
2026-05-04 14:46 42.32692 31.79510 39848 ft 505 kts 286°
2026-05-04 14:47 42.34456 31.70334 39860 ft 504 kts 286°
2026-05-04 14:47 42.36202 31.61208 39857 ft 504 kts 286°
2026-05-04 14:48 42.37949 31.52038 39863 ft 503 kts 286°
2026-05-04 14:48 42.39686 31.42868 39872 ft 503 kts 287°
2026-05-04 14:49 42.41421 31.33676 39876 ft 504 kts 286°
2026-05-04 14:49 42.43136 31.24539 39877 ft 504 kts 286°
2026-05-04 14:50 42.44857 31.15333 39878 ft 503 kts 286°
2026-05-04 14:50 42.46567 31.06149 39889 ft 502 kts 285°
2026-05-04 14:51 42.48260 30.97028 39897 ft 501 kts 287°
2026-05-04 14:51 42.49955 30.87859 39902 ft 501 kts 285°
2026-05-04 14:52 42.51638 30.78706 39903 ft 500 kts 286°
2026-05-04 14:52 42.53312 30.69559 39916 ft 499 kts 286°
2026-05-04 14:53 42.54967 30.60471 39923 ft 499 kts 286°
2026-05-04 14:53 42.56625 30.51318 39904 ft 499 kts 287°
2026-05-04 14:54 42.58280 30.42147 39936 ft 500 kts 286°
2026-05-04 14:54 42.59945 30.32968 39941 ft 500 kts 288°
2026-05-04 14:55 42.62571 30.24356 39948 ft 495 kts 301°
2026-05-04 14:55 42.66427 30.16640 39950 ft 492 kts 310°
2026-05-04 14:56 42.70639 30.09285 39954 ft 493 kts 309°
2026-05-04 14:56 42.74827 30.01938 39963 ft 494 kts 310°
2026-05-04 14:57 42.79011 29.94498 39953 ft 494 kts 310°
2026-05-04 14:57 42.83173 29.87036 39969 ft 494 kts 309°
2026-05-04 14:58 42.87325 29.79566 39977 ft 495 kts 310°
2026-05-04 14:58 42.91458 29.72116 39983 ft 495 kts 309°
2026-05-04 14:59 42.95607 29.64622 39980 ft 494 kts 309°
2026-05-04 15:00 43.01814 29.53375 39981 ft 494 kts 309°
2026-05-04 15:00 43.05952 29.45854 39990 ft 494 kts 309°
2026-05-04 15:01 43.12119 29.34606 39994 ft 494 kts 309°
2026-05-04 15:01 43.16236 29.27075 39999 ft 494 kts 309°
2026-05-04 15:02 43.20350 29.19531 39988 ft 494 kts 309°
2026-05-04 15:02 43.24459 29.11974 40003 ft 493 kts 309°
2026-05-04 15:03 43.28554 29.04428 40009 ft 492 kts 309°
2026-05-04 15:03 43.32612 28.96928 40012 ft 492 kts 308°
2026-05-04 15:04 43.36680 28.89390 40018 ft 491 kts 308°
2026-05-04 15:04 43.40748 28.81834 40016 ft 490 kts 308°
2026-05-04 15:05 43.44797 28.74292 40023 ft 490 kts 308°
2026-05-04 15:05 43.48846 28.66732 40015 ft 489 kts 308°
2026-05-04 15:06 43.52860 28.59219 40023 ft 489 kts 308°
2026-05-04 15:07 43.58905 28.47866 40022 ft 489 kts 308°
2026-05-04 15:07 43.62931 28.40282 40022 ft 489 kts 308°
2026-05-04 15:08 43.66926 28.32737 40024 ft 489 kts 308°
2026-05-04 15:08 43.70948 28.25119 40021 ft 489 kts 308°
2026-05-04 15:09 43.74953 28.17514 40011 ft 489 kts 307°
2026-05-04 15:09 43.78954 28.09899 40020 ft 488 kts 307°
2026-05-04 15:10 43.84926 27.98493 40026 ft 488 kts 307°
2026-05-04 15:11 43.90876 27.87086 40021 ft 488 kts 307°
2026-05-04 15:11 43.94854 27.79433 40027 ft 488 kts 307°
2026-05-04 15:12 43.98827 27.71771 40024 ft 489 kts 307°
2026-05-04 15:12 44.02803 27.64084 40020 ft 489 kts 307°
2026-05-04 15:13 44.06742 27.56448 40026 ft 489 kts 307°
2026-05-04 15:13 44.10701 27.48751 40029 ft 488 kts 307°
2026-05-04 15:14 44.14649 27.41054 40030 ft 488 kts 307°
2026-05-04 15:14 44.18599 27.33336 40024 ft 488 kts 307°
2026-05-04 15:15 44.22529 27.25636 40033 ft 487 kts 307°
2026-05-04 15:15 44.26452 27.17928 40031 ft 487 kts 307°
2026-05-04 15:16 44.32294 27.06414 40024 ft 486 kts 306°
2026-05-04 15:17 44.37488 26.96137 40029 ft 485 kts 306°
2026-05-04 15:17 44.43945 26.83309 40030 ft 484 kts 306°
2026-05-04 15:18 44.47187 26.76848 40031 ft 484 kts 306°
2026-05-04 15:19 44.52961 26.65305 40029 ft 483 kts 306°
2026-05-04 15:19 44.58741 26.53702 40028 ft 483 kts 306°
2026-05-04 15:20 44.62586 26.45959 40036 ft 483 kts 306°
2026-05-04 15:20 44.66430 26.38196 40032 ft 484 kts 306°
2026-05-04 15:21 44.70269 26.30422 40035 ft 484 kts 306°
2026-05-04 15:22 44.76005 26.18767 40045 ft 484 kts 305°
2026-05-04 15:22 44.81749 26.07049 40039 ft 484 kts 305°
2026-05-04 15:23 44.85573 25.99220 40036 ft 485 kts 305°
2026-05-04 15:23 44.89394 25.91379 40027 ft 484 kts 305°
2026-05-04 15:24 44.96981 25.75741 40029 ft 484 kts 305°
2026-05-04 15:25 45.00776 25.67887 40031 ft 484 kts 305°
2026-05-04 15:26 45.06456 25.56092 40034 ft 483 kts 305°
2026-05-04 15:26 45.12101 25.44320 40027 ft 480 kts 306°
2026-05-04 15:27 45.17686 25.32629 40048 ft 478 kts 306°
2026-05-04 15:28 45.23258 25.20912 40041 ft 477 kts 306°
2026-05-04 15:29 45.28799 25.09216 40036 ft 478 kts 305°
2026-05-04 15:30 45.41784 24.81615 40042 ft 482 kts 305°
2026-05-04 15:31 45.47369 24.69660 40049 ft 482 kts 305°
2026-05-04 15:32 45.56620 24.49744 40038 ft 481 kts 305°
2026-05-04 15:34 45.65820 24.29804 40052 ft 482 kts 304°
2026-05-04 15:34 45.71340 24.17768 40038 ft 482 kts 304°
2026-05-04 15:35 45.76823 24.05764 40049 ft 482 kts 304°
2026-05-04 15:36 45.82324 23.93668 40055 ft 482 kts 304°
2026-05-04 15:36 45.85984 23.85593 40044 ft 482 kts 304°
2026-05-04 15:37 45.89637 23.77509 40051 ft 482 kts 304°
2026-05-04 15:37 45.93263 23.69462 40050 ft 483 kts 304°
2026-05-04 15:38 45.96903 23.61359 40052 ft 483 kts 304°
2026-05-04 15:38 46.00543 23.53235 40046 ft 482 kts 304°
2026-05-04 15:39 46.04179 23.45093 40054 ft 482 kts 304°
2026-05-04 15:40 46.09597 23.32921 40054 ft 483 kts 303°
2026-05-04 15:40 46.13217 23.24759 40042 ft 483 kts 303°
2026-05-04 15:41 46.16826 23.16595 40066 ft 482 kts 303°
2026-05-04 15:41 46.20438 23.08405 40070 ft 483 kts 303°
2026-05-04 15:42 46.24014 23.00268 40068 ft 483 kts 303°
2026-05-04 15:42 46.27610 22.92062 40070 ft 482 kts 303°
2026-05-04 15:43 46.31193 22.83862 40071 ft 481 kts 303°
2026-05-04 15:43 46.34743 22.75715 40077 ft 481 kts 303°
2026-05-04 15:44 46.38304 22.67521 40084 ft 480 kts 303°
2026-05-04 15:44 46.41848 22.59339 40078 ft 479 kts 303°
2026-05-04 15:45 46.45380 22.51160 40074 ft 478 kts 303°
2026-05-04 15:45 46.48903 22.42981 40079 ft 477 kts 303°
2026-05-04 15:46 46.52396 22.34845 40083 ft 477 kts 303°
2026-05-04 15:46 46.55905 22.26648 40078 ft 477 kts 303°
2026-05-04 15:47 46.59383 22.18497 40077 ft 476 kts 303°
2026-05-04 15:47 46.62873 22.10298 40077 ft 476 kts 303°
2026-05-04 15:48 46.66360 22.02078 40076 ft 476 kts 303°
2026-05-04 15:48 46.71576 21.89741 40090 ft 476 kts 302°
2026-05-04 15:49 46.75020 21.81562 40073 ft 476 kts 302°
2026-05-04 15:49 46.78476 21.73331 40072 ft 476 kts 302°
2026-05-04 15:50 46.81943 21.65088 40067 ft 475 kts 303°
2026-05-04 15:50 46.85574 21.57027 40076 ft 475 kts 305°
2026-05-04 15:51 46.89265 21.49004 40082 ft 475 kts 304°
2026-05-04 15:51 46.92929 21.40954 40066 ft 475 kts 304°
2026-05-04 15:52 46.96557 21.32902 40074 ft 476 kts 304°
2026-05-04 15:52 47.00194 21.24790 40074 ft 475 kts 304°
2026-05-04 15:53 47.03804 21.16713 40073 ft 475 kts 304°
2026-05-04 15:53 47.07425 21.08592 40074 ft 475 kts 304°
2026-05-04 15:54 47.11038 21.00467 40070 ft 475 kts 304°
2026-05-04 15:54 47.14637 20.92348 40074 ft 474 kts 304°
2026-05-04 15:55 47.18233 20.84212 40071 ft 473 kts 304°
2026-05-04 15:55 47.21795 20.76129 40070 ft 473 kts 304°
2026-05-04 15:56 47.25368 20.67998 40071 ft 473 kts 304°
2026-05-04 15:56 47.28935 20.59855 40062 ft 472 kts 304°
2026-05-04 15:57 47.32493 20.51711 40062 ft 472 kts 303°
2026-05-04 15:57 47.36024 20.43602 40060 ft 472 kts 303°
2026-05-04 15:58 47.39575 20.35424 40054 ft 472 kts 303°
2026-05-04 15:58 47.43118 20.27240 40064 ft 472 kts 303°
2026-05-04 15:59 47.46627 20.19112 40062 ft 472 kts 303°
2026-05-04 15:59 47.50147 20.10920 40061 ft 471 kts 302°
2026-05-04 16:00 47.53408 20.02497 40063 ft 471 kts 300°
2026-05-04 16:00 47.56584 19.93990 40058 ft 471 kts 300°
2026-05-04 16:01 47.59781 19.85579 40056 ft 471 kts 300°
2026-05-04 16:01 47.63132 19.77236 40055 ft 470 kts 303°
2026-05-04 16:02 47.66137 19.70527 40053 ft 470 kts 304°
2026-05-04 16:03 47.71597 19.58448 40047 ft 469 kts 304°
2026-05-04 16:03 47.75213 19.50357 40044 ft 469 kts 303°
2026-05-04 16:04 47.78812 19.42252 40041 ft 469 kts 303°
2026-05-04 16:04 47.84168 19.30135 40037 ft 469 kts 303°
2026-05-04 16:05 47.87743 19.22018 40037 ft 468 kts 303°
2026-05-04 16:06 47.93096 19.09821 40034 ft 468 kts 303°
2026-05-04 16:07 48.00206 18.93539 40031 ft 468 kts 303°
2026-05-04 16:08 48.07271 18.77259 40026 ft 468 kts 303°
2026-05-04 16:09 48.16101 18.56777 40021 ft 468 kts 303°
2026-05-04 16:10 48.23144 18.40326 40018 ft 468 kts 302°
2026-05-04 16:11 48.30139 18.23892 40016 ft 468 kts 302°
2026-05-04 16:12 48.40583 17.99161 40003 ft 467 kts 302°
2026-05-04 16:13 48.47532 17.82579 40004 ft 467 kts 302°
2026-05-04 16:14 48.54438 17.66001 39997 ft 467 kts 302°
2026-05-04 16:16 48.63017 17.45258 39990 ft 466 kts 301°
2026-05-04 16:17 48.71582 17.24388 39982 ft 467 kts 301°
2026-05-04 16:18 48.78372 17.07703 39975 ft 467 kts 300°
2026-05-04 16:19 48.86053 16.86004 39966 ft 466 kts 297°
2026-05-04 16:20 48.93667 16.64245 39965 ft 465 kts 297°
2026-05-04 16:22 49.01214 16.42534 39969 ft 464 kts 296°
2026-05-04 16:23 49.10182 16.16486 39958 ft 462 kts 296°
2026-05-04 16:25 49.19454 15.90733 39975 ft 462 kts 300°
2026-05-04 16:26 49.31045 15.61128 39963 ft 464 kts 299°
2026-05-04 16:28 49.39252 15.39820 39970 ft 464 kts 299°
2026-05-04 16:29 49.50675 15.09882 39962 ft 464 kts 298°
2026-05-04 16:31 49.58768 14.88463 39968 ft 463 kts 298°
2026-05-04 16:32 49.68428 14.62663 39961 ft 462 kts 298°
2026-05-04 16:33 49.74822 14.45442 39972 ft 462 kts 297°
2026-05-04 16:34 49.79605 14.32485 39960 ft 462 kts 297°
2026-05-04 16:35 49.89114 14.06536 39956 ft 462 kts 297°
2026-05-04 16:36 49.93886 13.93474 39959 ft 463 kts 297°
2026-05-04 16:37 49.98644 13.80451 39955 ft 464 kts 297°
2026-05-04 16:38 50.05010 13.62901 39955 ft 465 kts 297°
2026-05-04 16:39 50.12894 13.40996 39949 ft 465 kts 296°
2026-05-04 16:40 50.19190 13.23365 39951 ft 465 kts 296°
2026-05-04 16:41 50.27019 13.01275 39964 ft 464 kts 296°
2026-05-04 16:43 50.34320 12.78877 39968 ft 462 kts 293°
2026-05-04 16:43 50.38598 12.65314 39963 ft 463 kts 294°
2026-05-04 16:45 50.48605 12.39339 39964 ft 465 kts 298°
2026-05-04 16:46 50.57025 12.17651 39967 ft 466 kts 298°
2026-05-04 16:47 50.63747 12.00176 39971 ft 467 kts 298°
2026-05-04 16:48 50.70468 11.82592 39955 ft 469 kts 298°
2026-05-04 16:49 50.77164 11.64954 39966 ft 470 kts 298°
2026-05-04 16:50 50.83294 11.48699 39962 ft 470 kts 297°
2026-05-04 16:51 50.88293 11.35366 39963 ft 469 kts 297°
2026-05-04 16:52 50.94937 11.17539 39964 ft 468 kts 297°
2026-05-04 16:53 50.99865 11.04235 39965 ft 467 kts 297°
2026-05-04 16:54 51.06428 10.86411 39968 ft 467 kts 297°
2026-05-04 16:55 51.16199 10.59640 39962 ft 467 kts 296°
2026-05-04 16:56 51.24335 10.37135 39960 ft 469 kts 296°
2026-05-04 16:57 51.28953 10.23373 39960 ft 469 kts 294°
2026-05-04 16:58 51.34821 10.04766 39964 ft 471 kts 294°
2026-05-04 17:00 51.43747 9.76662 39955 ft 472 kts 294°
2026-05-04 17:01 51.51121 9.53202 39966 ft 471 kts 294°
2026-05-04 17:02 51.56967 9.34441 39941 ft 470 kts 294°
2026-05-04 17:03 51.61339 9.20312 39929 ft 470 kts 293°
2026-05-04 17:03 51.65675 9.06221 39945 ft 469 kts 293°
2026-05-04 17:04 51.71423 8.87413 39977 ft 469 kts 293°
2026-05-04 17:05 51.76985 8.68360 39969 ft 468 kts 290°
2026-05-04 17:06 51.80828 8.53880 39962 ft 468 kts 290°
2026-05-04 17:07 51.84268 8.41013 39958 ft 468 kts 290°
2026-05-04 17:07 51.87276 8.29779 39970 ft 468 kts 290°
2026-05-04 17:08 51.91144 8.15257 39960 ft 468 kts 290°
2026-05-04 17:09 51.93712 8.05560 39957 ft 468 kts 290°
2026-05-04 17:09 51.96255 7.95914 39961 ft 467 kts 290°
2026-05-04 17:10 51.98788 7.86274 39583 ft 461 kts 290°
2026-05-04 17:10 52.02517 7.71999 37346 ft 456 kts 289°
2026-05-04 17:11 52.03747 7.67268 36601 ft 453 kts 289°
2026-05-04 17:11 52.04969 7.62564 35803 ft 451 kts 288°
2026-05-04 17:11 52.07378 7.53261 34585 ft 440 kts 288°
2026-05-04 17:12 52.08544 7.48743 34029 ft 435 kts 287°
2026-05-04 17:12 52.10856 7.39753 32825 ft 425 kts 287°
2026-05-04 17:13 52.14205 7.26658 31226 ft 410 kts 287°
2026-05-04 17:14 52.17419 7.14017 29651 ft 399 kts 287°
2026-05-04 17:14 52.18474 7.09854 29076 ft 395 kts 287°
2026-05-04 17:14 52.20551 7.01638 27971 ft 388 kts 287°
2026-05-04 17:15 52.21619 6.97603 27430 ft 388 kts 292°
2026-05-04 17:15 52.24929 6.90606 26397 ft 393 kts 307°
2026-05-04 17:16 52.28473 6.83804 25351 ft 392 kts 306°
2026-05-04 17:16 52.33644 6.73452 23824 ft 391 kts 306°
2026-05-04 17:17 52.35355 6.70006 23282 ft 391 kts 306°
2026-05-04 17:17 52.40408 6.59810 21745 ft 381 kts 307°
2026-05-04 17:18 52.42074 6.56440 21263 ft 378 kts 307°
2026-05-04 17:18 52.45364 6.49768 20320 ft 371 kts 306°
2026-05-04 17:19 52.47183 6.42224 19429 ft 356 kts 273°
2026-05-04 17:19 52.47535 6.34165 18544 ft 357 kts 273°
2026-05-04 17:20 52.47907 6.26086 17585 ft 353 kts 273°
2026-05-04 17:20 52.48289 6.18120 16671 ft 347 kts 274°
2026-05-04 17:20 52.48480 6.14194 16247 ft 344 kts 274°
2026-05-04 17:21 52.48854 6.06444 15386 ft 338 kts 274°
2026-05-04 17:21 52.49218 5.98756 14551 ft 338 kts 274°
2026-05-04 17:22 52.49399 5.94917 14145 ft 335 kts 274°
2026-05-04 17:22 52.49576 5.91120 13726 ft 333 kts 274°
2026-05-04 17:23 52.50092 5.79937 12566 ft 319 kts 273°
2026-05-04 17:23 52.50254 5.76388 12470 ft 306 kts 274°
2026-05-04 17:23 52.49887 5.69783 11761 ft 290 kts 245°
2026-05-04 17:24 52.48932 5.66893 11437 ft 286 kts 239°
2026-05-04 17:24 52.45775 5.58652 10445 ft 279 kts 238°
2026-05-04 17:25 52.44736 5.55977 10096 ft 278 kts 238°
2026-05-04 17:25 52.42648 5.50607 9319 ft 278 kts 237°
2026-05-04 17:26 52.40592 5.45321 8633 ft 275 kts 238°
2026-05-04 17:26 52.37508 5.37430 7488 ft 276 kts 237°
2026-05-04 17:27 52.35443 5.32150 6870 ft 272 kts 237°
2026-05-04 17:27 52.33412 5.26982 6236 ft 271 kts 238°
2026-05-04 17:28 52.31373 5.21823 5557 ft 269 kts 237°
2026-05-04 17:29 52.28353 5.14207 5016 ft 262 kts 238°
2026-05-04 17:29 52.25353 5.06689 4702 ft 255 kts 237°
2026-05-04 17:30 52.22606 4.99838 4520 ft 229 kts 237°
2026-05-04 17:31 52.20979 4.95313 4533 ft 235 kts 242°
2026-05-04 17:31 52.18624 4.88219 4326 ft 239 kts 242°
2026-05-04 17:32 52.17071 4.83564 4032 ft 232 kts 243°
2026-05-04 17:33 52.15111 4.76360 3652 ft 233 kts 254°
2026-05-04 17:33 52.14631 4.73836 3535 ft 234 kts 254°
2026-05-04 17:34 52.13200 4.66227 3224 ft 234 kts 255°
2026-05-04 17:34 52.12812 4.63715 3139 ft 232 kts 260°
2026-05-04 17:35 52.12191 4.55937 2990 ft 229 kts 267°
2026-05-04 17:35 52.11803 4.50758 2996 ft 231 kts 265°
2026-05-04 17:35 52.11592 4.48158 2990 ft 232 kts 264°
2026-05-04 17:36 52.11384 4.45566 2987 ft 227 kts 264°
2026-05-04 17:36 52.11338 4.43100 2970 ft 211 kts 285°
2026-05-04 17:36 52.12012 4.41127 2974 ft 198 kts 321°
2026-05-04 17:36 52.13223 4.40292 3010 ft 184 kts 360°
2026-05-04 17:37 52.14438 4.40714 3001 ft 180 kts 19°
2026-05-04 17:37 52.15615 4.41446 2994 ft 181 kts 22°
2026-05-04 17:37 52.16609 4.42603 2978 ft 177 kts 50°
2026-05-04 17:37 52.17378 4.44223 3000 ft 186 kts 51°
2026-05-04 17:38 52.18144 4.45941 3002 ft 186 kts 54°
2026-05-04 17:38 52.18616 4.47092 2987 ft 183 kts 54°
2026-05-04 17:38 52.19310 4.48848 2822 ft 187 kts 56°
2026-05-04 17:38 52.20009 4.50647 2558 ft 186 kts 56°
2026-05-04 17:39 52.21337 4.54086 2349 ft 175 kts 56°
2026-05-04 17:39 52.21991 4.55780 2226 ft 176 kts 56°
2026-05-04 17:39 52.22616 4.57398 2103 ft 161 kts 56°
2026-05-04 17:40 52.23174 4.58848 2047 ft 144 kts 55°
2026-05-04 17:40 52.23700 4.60210 1961 ft 141 kts 55°
2026-05-04 17:40 52.24208 4.61528 1756 ft 132 kts 55°
2026-05-04 17:40 52.24681 4.62755 1581 ft 126 kts 54°
2026-05-04 17:41 52.25150 4.63968 1409 ft 130 kts 54°
2026-05-04 17:41 52.25625 4.65202 1244 ft 127 kts 53°
2026-05-04 17:41 52.26092 4.66414 1063 ft 125 kts 53°
2026-05-04 17:41 52.26553 4.67611 901 ft 124 kts 54°
2026-05-04 17:42 52.27008 4.68804 730 ft 124 kts 55°
2026-05-04 17:42 52.27476 4.69990 546 ft 124 kts 54°
2026-05-04 17:42 52.27929 4.71175 362 ft 123 kts 59°
2026-05-04 17:42 52.28365 4.72392 205 ft 122 kts 51°
2026-05-04 17:43 52.28832 4.73529 58 ft 123 kts 52°
2026-05-04 17:43 52.29291 4.74708 11 ft 116 kts 53°
2026-05-04 17:43 52.29657 4.75651 3 ft 74 kts 59°
2026-05-04 17:43 52.29878 4.76230 1 ft 51 kts 57°
2026-05-04 17:44 52.30021 4.76524 3 ft 27 kts 35°
2026-05-04 17:44 52.30150 4.76642 3 ft 17 kts 28°
2026-05-04 17:44 52.30247 4.76722 3 ft 13 kts 27°
2026-05-04 17:44 52.30305 4.76808 3 ft 11 kts 54°
2026-05-04 17:45 52.30346 4.76907 3 ft 10 kts 57°
2026-05-04 17:45 52.30385 4.77007 3 ft 10 kts 57°
2026-05-04 17:45 52.30424 4.77107 3 ft 10 kts 58°
2026-05-04 17:45 52.30462 4.77207 3 ft 10 kts 58°
2026-05-04 17:46 52.30500 4.77305 3 ft 10 kts 60°
2026-05-04 17:46 52.30504 4.77317 3 ft 0 kts 60°
2026-05-04 17:46 52.30504 4.77318 3 ft 0 kts 60°
2026-05-04 17:46 52.30523 4.77371 3 ft 16 kts 60°
2026-05-04 17:47 52.30569 4.77475 3 ft 9 kts 37°
2026-05-04 17:47 52.30620 4.77485 3 ft 0 kts 348°
2026-05-04 17:47 52.30625 4.77483 4 ft 4 kts 346°
2026-05-04 17:47 52.30640 4.77475 3 ft 0 kts 343°
2026-05-04 17:48 52.30642 4.77474 3 ft 1 kts 343°
2026-05-04 17:48 52.30675 4.77467 3 ft 7 kts 353°
2026-05-04 17:48 52.30725 4.77462 3 ft 7 kts 359°
2026-05-04 17:48 52.30775 4.77463 3 ft 7 kts
2026-05-04 17:49 52.30825 4.77466 4 ft 7 kts
2026-05-04 17:49 52.30875 4.77469 4 ft 7 kts
2026-05-04 17:49 52.30925 4.77472 4 ft 7 kts
2026-05-04 17:49 52.30975 4.77475 4 ft 7 kts
2026-05-04 17:50 52.31025 4.77476 4 ft 7 kts 354°
2026-05-04 17:50 52.31058 4.77432 4 ft 5 kts 295°
2026-05-04 17:50 52.31064 4.77397 3 ft 0 kts 283°
2026-05-04 17:50 52.31066 4.77378 3 ft 9 kts 278°
2026-05-04 17:51 52.31069 4.77330 3 ft 4 kts 276°
2026-05-04 17:51 52.31071 4.77291 3 ft 3 kts 273°
2026-05-04 17:51 52.31063 4.77263 3 ft 3 kts 227°
2026-05-04 17:51 52.31044 4.77250 3 ft 3 kts 194°
2026-05-04 17:52 52.31034 4.77246 3 ft 1 kts 193°
2026-05-04 17:52 52.31027 4.77245 3 ft 1 kts 189°
2026-05-04 17:52 52.31022 4.77243 3 ft 0 kts 188°
2026-05-04 17:52 52.31019 4.77243 3 ft 0 kts 186°
2026-05-04 17:53 52.31014 4.77242 3 ft 1 kts 186°
2026-05-04 17:53 52.31009 4.77241 3 ft 1 kts 186°
2026-05-04 17:53 52.31006 4.77241 3 ft 1 kts 185°